Time,TemperatureF,DewpointF,PressureIn,WindDirection,WindDirectionDegrees,WindSpeedMPH,WindSpeedGustMPH,Humidity,HourlyPrecipIn,Conditions,Clouds,dailyrainin,SoftwareType,DateUTC
2013-09-20 01:12:00,70.6,67.2,30.02,SE,140,0.0,0.0,89,0.00,,,0.00,Wunderground v.1.15,2013-09-20 05:12:00,
2013-09-20 01:26:00,70.4,67.0,30.01,SE,140,0.0,0.0,89,0.00,,,0.00,Wunderground v.1.15,2013-09-20 05:26:00,
2013-09-20 01:31:00,70.3,66.9,30.01,SE,140,0.0,0.0,89,0.00,,,0.00,Wunderground v.1.15,2013-09-20 05:31:00,
2013-09-20 01:36:00,70.3,66.9,30.01,WSW,255,0.0,0.0,89,0.00,,,0.00,Wunderground v.1.15,2013-09-20 05:36:00,
2013-09-20 01:37:00,70.2,66.8,30.01,WSW,256,0.0,0.0,89,0.00,,,0.00,Wunderground v.1.15,2013-09-20 05:37:00,
2013-09-20 01:42:00,70.1,67.0,30.01,WSW,255,0.0,0.0,90,0.00,,,0.00,Wunderground v.1.15,2013-09-20 05:42:00,
2013-09-20 01:43:00,70.1,67.0,30.01,WSW,255,0.0,0.0,90,0.00,,,0.00,Wunderground v.1.15,2013-09-20 05:43:00,
2013-09-20 01:44:00,70.0,66.9,30.02,WSW,255,0.0,0.0,90,0.00,,,0.00,Wunderground v.1.15,2013-09-20 05:44:00,
2013-09-20 01:50:00,69.8,66.7,30.02,WSW,255,0.0,0.0,90,0.00,,,0.00,Wunderground v.1.15,2013-09-20 05:50:00,
2013-09-20 01:51:00,69.8,66.7,30.01,WSW,255,0.0,0.0,90,0.00,,,0.00,Wunderground v.1.15,2013-09-20 05:51:00,
2013-09-20 01:52:00,69.8,66.7,30.01,WSW,255,0.0,0.0,90,0.00,,,0.00,Wunderground v.1.15,2013-09-20 05:52:00,
2013-09-20 01:57:00,69.7,66.6,30.02,WSW,255,0.0,0.0,90,0.00,,,0.00,Wunderground v.1.15,2013-09-20 05:57:00,
2013-09-20 01:58:00,69.7,66.6,30.02,WSW,255,0.0,0.0,90,0.00,,,0.00,Wunderground v.1.15,2013-09-20 05:58:00,
2013-09-20 01:59:00,69.7,66.6,30.02,WSW,255,0.0,0.0,90,0.00,,,0.00,Wunderground v.1.15,2013-09-20 05:59:00,
2013-09-20 02:02:00,69.6,66.5,30.02,WSW,255,0.0,0.0,90,0.00,,,0.00,Wunderground v.1.15,2013-09-20 06:02:00,
2013-09-20 02:04:00,69.5,66.4,30.02,WSW,255,0.0,0.0,90,0.00,,,0.00,Wunderground v.1.15,2013-09-20 06:04:00,
2013-09-20 02:06:00,69.5,66.4,30.02,WSW,255,0.0,0.0,90,0.00,,,0.00,Wunderground v.1.15,2013-09-20 06:06:00,
2013-09-20 02:11:00,69.4,66.7,30.02,WSW,255,0.0,0.0,91,0.00,,,0.00,Wunderground v.1.15,2013-09-20 06:11:00,
2013-09-20 02:14:00,69.4,66.7,30.02,WSW,255,0.0,0.0,91,0.00,,,0.00,Wunderground v.1.15,2013-09-20 06:14:00,
2013-09-20 02:15:00,69.4,66.7,30.02,WSW,255,0.0,0.0,91,0.00,,,0.00,Wunderground v.1.15,2013-09-20 06:15:00,
2013-09-20 02:16:00,69.4,66.7,30.02,WSW,255,0.0,0.0,91,0.00,,,0.00,Wunderground v.1.15,2013-09-20 06:16:00,
2013-09-20 02:22:00,69.3,66.6,30.02,WSW,255,0.0,0.0,91,0.00,,,0.00,Wunderground v.1.15,2013-09-20 06:22:00,
2013-09-20 02:24:00,69.3,66.6,30.02,WSW,255,0.0,0.0,91,0.00,,,0.00,Wunderground v.1.15,2013-09-20 06:24:00,
2013-09-20 02:26:00,69.2,66.5,30.02,WSW,255,0.0,0.0,91,0.00,,,0.00,Wunderground v.1.15,2013-09-20 06:26:00,
2013-09-20 02:28:00,69.2,66.5,30.02,WSW,255,0.0,0.0,91,0.00,,,0.00,Wunderground v.1.15,2013-09-20 06:28:00,
2013-09-20 02:32:00,69.1,66.4,30.01,WSW,255,0.0,0.0,91,0.00,,,0.00,Wunderground v.1.15,2013-09-20 06:32:00,
2013-09-20 02:35:00,69.0,66.3,30.01,WSW,255,0.0,0.0,91,0.00,,,0.00,Wunderground v.1.15,2013-09-20 06:35:00,
2013-09-20 02:36:00,69.0,66.3,30.01,WSW,255,0.0,0.0,91,0.00,,,0.00,Wunderground v.1.15,2013-09-20 06:36:00,
2013-09-20 02:38:00,69.0,66.3,30.01,WSW,255,0.0,0.0,91,0.00,,,0.00,Wunderground v.1.15,2013-09-20 06:38:00,
2013-09-20 02:39:00,69.0,66.3,30.01,WSW,255,0.0,0.0,91,0.00,,,0.00,Wunderground v.1.15,2013-09-20 06:39:00,
2013-09-20 02:43:00,68.9,66.5,30.01,WSW,255,0.0,0.0,92,0.00,,,0.00,Wunderground v.1.15,2013-09-20 06:43:00,
2013-09-20 02:44:00,68.9,66.5,30.01,WSW,255,0.0,0.0,92,0.00,,,0.00,Wunderground v.1.15,2013-09-20 06:44:00,
2013-09-20 02:49:00,68.9,66.5,30.01,WSW,255,0.0,0.0,92,0.00,,,0.00,Wunderground v.1.15,2013-09-20 06:49:00,
2013-09-20 02:50:00,68.9,66.5,30.01,WSW,255,0.0,0.0,92,0.00,,,0.00,Wunderground v.1.15,2013-09-20 06:50:00,
2013-09-20 02:51:00,68.8,66.4,30.01,WSW,255,0.0,0.0,92,0.00,,,0.00,Wunderground v.1.15,2013-09-20 06:51:00,
2013-09-20 02:52:00,68.8,66.4,30.01,WSW,255,0.0,0.0,92,0.00,,,0.00,Wunderground v.1.15,2013-09-20 06:52:00,
2013-09-20 02:56:00,68.8,66.4,30.01,WSW,255,0.0,0.0,92,0.00,,,0.00,Wunderground v.1.15,2013-09-20 06:56:00,
2013-09-20 02:58:00,68.7,66.3,30.01,WSW,255,0.0,0.0,92,0.00,,,0.00,Wunderground v.1.15,2013-09-20 06:58:00,
2013-09-20 02:59:00,68.7,66.3,30.01,WSW,255,0.0,0.0,92,0.00,,,0.00,Wunderground v.1.15,2013-09-20 06:59:00,
2013-09-20 03:02:00,68.7,66.3,30.01,WSW,255,0.0,0.0,92,0.00,,,0.00,Wunderground v.1.15,2013-09-20 07:02:00,
2013-09-20 03:03:00,68.7,66.3,30.01,WSW,255,0.0,0.0,92,0.00,,,0.00,Wunderground v.1.15,2013-09-20 07:03:00,
2013-09-20 03:05:00,68.6,66.2,30.01,WSW,255,0.0,0.0,92,0.00,,,0.00,Wunderground v.1.15,2013-09-20 07:05:00,
2013-09-20 03:08:00,68.6,66.2,30.01,WSW,255,0.0,0.0,92,0.00,,,0.00,Wunderground v.1.15,2013-09-20 07:08:00,
2013-09-20 03:11:00,68.6,66.2,30.01,WSW,255,0.0,0.0,92,0.00,,,0.00,Wunderground v.1.15,2013-09-20 07:11:00,
2013-09-20 03:13:00,68.6,66.2,30.01,WSW,255,0.0,0.0,92,0.00,,,0.00,Wunderground v.1.15,2013-09-20 07:13:00,
2013-09-20 03:14:00,68.6,66.2,30.01,WSW,255,0.0,0.0,92,0.00,,,0.00,Wunderground v.1.15,2013-09-20 07:14:00,
2013-09-20 03:16:00,68.6,66.2,30.01,WSW,255,0.0,0.0,92,0.00,,,0.00,Wunderground v.1.15,2013-09-20 07:16:00,
2013-09-20 03:19:00,68.6,66.2,30.01,WSW,255,0.0,0.0,92,0.00,,,0.00,Wunderground v.1.15,2013-09-20 07:19:00,
2013-09-20 03:20:00,68.6,66.2,30.01,WSW,255,0.0,0.0,92,0.00,,,0.00,Wunderground v.1.15,2013-09-20 07:20:00,
2013-09-20 03:23:00,68.6,66.2,30.01,WSW,255,0.0,0.0,92,0.00,,,0.00,Wunderground v.1.15,2013-09-20 07:23:00,
2013-09-20 03:25:00,68.6,66.2,30.01,WSW,255,0.0,0.0,92,0.00,,,0.00,Wunderground v.1.15,2013-09-20 07:25:00,
2013-09-20 03:29:00,68.6,66.2,30.00,WSW,255,0.0,0.0,92,0.00,,,0.00,Wunderground v.1.15,2013-09-20 07:29:00,
2013-09-20 03:30:00,68.5,66.1,30.00,WSW,255,0.0,0.0,92,0.00,,,0.00,Wunderground v.1.15,2013-09-20 07:30:00,
2013-09-20 03:32:00,68.5,66.4,30.00,WSW,255,0.0,0.0,93,0.00,,,0.00,Wunderground v.1.15,2013-09-20 07:32:00,
2013-09-20 03:34:00,68.5,66.1,30.00,WSW,255,0.0,0.0,92,0.00,,,0.00,Wunderground v.1.15,2013-09-20 07:34:00,
2013-09-20 03:35:00,68.5,66.1,30.00,WSW,255,0.0,0.0,92,0.00,,,0.00,Wunderground v.1.15,2013-09-20 07:35:00,
2013-09-20 03:37:00,68.5,66.1,30.00,WSW,255,0.0,0.0,92,0.00,,,0.00,Wunderground v.1.15,2013-09-20 07:37:00,
2013-09-20 03:38:00,68.5,66.1,30.00,WSW,255,0.0,0.0,92,0.00,,,0.00,Wunderground v.1.15,2013-09-20 07:38:00,
2013-09-20 03:41:00,68.5,66.1,30.00,WSW,255,0.0,0.0,92,0.00,,,0.00,Wunderground v.1.15,2013-09-20 07:41:00,
2013-09-20 03:42:00,68.5,66.1,30.00,WSW,255,0.0,0.0,92,0.00,,,0.00,Wunderground v.1.15,2013-09-20 07:42:00,
2013-09-20 03:45:00,68.4,66.0,30.00,SSW,205,0.0,0.0,92,0.00,,,0.00,Wunderground v.1.15,2013-09-20 07:45:00,
2013-09-20 03:48:00,68.4,66.0,30.00,SSW,205,0.0,0.0,92,0.00,,,0.00,Wunderground v.1.15,2013-09-20 07:48:00,
2013-09-20 03:50:00,68.4,66.0,30.00,SSW,205,0.0,0.0,92,0.00,,,0.00,Wunderground v.1.15,2013-09-20 07:50:00,
2013-09-20 03:51:00,68.4,66.0,30.00,SSW,206,0.0,0.0,92,0.00,,,0.00,Wunderground v.1.15,2013-09-20 07:51:00,
2013-09-20 03:53:00,68.4,66.0,30.00,SSW,206,0.0,0.0,92,0.00,,,0.00,Wunderground v.1.15,2013-09-20 07:53:00,
2013-09-20 03:55:00,68.4,66.0,30.00,SSW,206,0.0,0.0,92,0.00,,,0.00,Wunderground v.1.15,2013-09-20 07:55:00,
2013-09-20 03:58:00,68.4,66.0,30.00,SSW,206,0.0,0.0,92,0.00,,,0.00,Wunderground v.1.15,2013-09-20 07:58:00,
2013-09-20 03:59:00,68.4,66.0,30.00,SSW,206,0.0,0.0,92,0.00,,,0.00,Wunderground v.1.15,2013-09-20 07:59:00,
2013-09-20 04:00:00,68.4,66.0,30.00,SSW,206,0.0,0.0,92,0.00,,,0.00,Wunderground v.1.15,2013-09-20 08:00:00,
2013-09-20 04:02:00,68.4,66.0,30.00,SSW,206,0.0,0.0,92,0.00,,,0.00,Wunderground v.1.15,2013-09-20 08:02:00,
2013-09-20 04:05:00,68.5,66.1,30.00,South,171,0.0,0.0,92,0.00,,,0.00,Wunderground v.1.15,2013-09-20 08:05:00,
2013-09-20 04:07:00,68.5,66.1,30.00,South,171,0.0,0.0,92,0.00,,,0.00,Wunderground v.1.15,2013-09-20 08:07:00,
2013-09-20 04:12:00,68.6,66.2,30.00,South,171,0.0,0.0,92,0.00,,,0.00,Wunderground v.1.15,2013-09-20 08:12:00,
2013-09-20 04:14:00,68.6,66.2,30.00,South,171,0.0,0.0,92,0.00,,,0.00,Wunderground v.1.15,2013-09-20 08:14:00,
2013-09-20 04:16:00,68.6,66.2,30.00,WSW,257,0.0,0.0,92,0.00,,,0.00,Wunderground v.1.15,2013-09-20 08:16:00,
2013-09-20 04:19:00,68.6,66.2,30.00,WSW,255,0.0,0.0,92,0.00,,,0.00,Wunderground v.1.15,2013-09-20 08:19:00,
2013-09-20 04:22:00,68.6,66.2,30.00,SW,229,0.0,0.0,92,0.00,,,0.00,Wunderground v.1.15,2013-09-20 08:22:00,
2013-09-20 04:23:00,68.6,66.2,30.00,SSW,211,0.0,2.0,92,0.00,,,0.00,Wunderground v.1.15,2013-09-20 08:23:00,
2013-09-20 04:24:00,68.6,66.2,30.00,SSE,157,0.0,2.0,92,0.00,,,0.00,Wunderground v.1.15,2013-09-20 08:24:00,
2013-09-20 04:25:00,68.6,66.2,30.00,SSE,157,0.0,0.0,92,0.00,,,0.00,Wunderground v.1.15,2013-09-20 08:25:00,
2013-09-20 04:26:00,68.6,66.2,30.00,WNW,299,1.0,1.0,92,0.00,,,0.00,Wunderground v.1.15,2013-09-20 08:26:00,
2013-09-20 04:28:00,68.6,66.2,30.00,WNW,288,1.0,4.0,92,0.00,,,0.00,Wunderground v.1.15,2013-09-20 08:28:00,
2013-09-20 04:29:00,68.6,66.2,30.00,WNW,288,1.0,4.0,92,0.00,,,0.00,Wunderground v.1.15,2013-09-20 08:29:00,
2013-09-20 04:30:00,68.7,66.3,30.00,NW,317,1.0,4.0,92,0.00,,,0.00,Wunderground v.1.15,2013-09-20 08:30:00,
2013-09-20 04:33:00,68.7,66.0,30.00,SSW,207,1.0,4.0,91,0.00,,,0.00,Wunderground v.1.15,2013-09-20 08:33:00,
2013-09-20 04:35:00,68.8,66.1,30.00,WNW,284,1.0,4.0,91,0.00,,,0.00,Wunderground v.1.15,2013-09-20 08:35:00,
2013-09-20 04:36:00,68.8,66.1,30.00,SW,231,1.0,1.0,91,0.00,,,0.00,Wunderground v.1.15,2013-09-20 08:36:00,
2013-09-20 04:39:00,68.8,66.1,30.00,ESE,103,0.0,1.0,91,0.00,,,0.00,Wunderground v.1.15,2013-09-20 08:39:00,
2013-09-20 04:42:00,68.9,66.2,29.99,SW,224,0.0,1.0,91,0.00,,,0.00,Wunderground v.1.15,2013-09-20 08:42:00,
2013-09-20 04:44:00,68.9,66.2,29.99,SW,224,0.0,2.0,91,0.00,,,0.00,Wunderground v.1.15,2013-09-20 08:44:00,
2013-09-20 04:46:00,69.0,66.3,29.99,SW,216,0.0,2.0,91,0.00,,,0.00,Wunderground v.1.15,2013-09-20 08:46:00,
2013-09-20 04:47:00,69.0,66.3,29.99,West,271,1.0,2.0,91,0.00,,,0.00,Wunderground v.1.15,2013-09-20 08:47:00,
2013-09-20 04:51:00,69.2,66.1,29.99,SW,234,1.0,2.0,90,0.00,,,0.00,Wunderground v.1.15,2013-09-20 08:51:00,
2013-09-20 04:52:00,69.2,66.1,29.99,SW,234,1.0,2.0,90,0.00,,,0.00,Wunderground v.1.15,2013-09-20 08:52:00,
2013-09-20 04:54:00,69.2,66.1,29.99,South,186,1.0,2.0,90,0.00,,,0.00,Wunderground v.1.15,2013-09-20 08:54:00,
2013-09-20 04:58:00,69.2,66.1,29.99,SSW,196,0.0,1.0,90,0.00,,,0.00,Wunderground v.1.15,2013-09-20 08:58:00,
2013-09-20 04:59:00,69.2,66.1,29.99,South,178,0.0,1.0,90,0.00,,,0.00,Wunderground v.1.15,2013-09-20 08:59:00,
2013-09-20 05:01:00,69.3,66.2,29.99,SW,236,0.0,1.0,90,0.00,,,0.00,Wunderground v.1.15,2013-09-20 09:01:00,
2013-09-20 05:04:00,69.3,66.2,29.99,SW,221,0.0,1.0,90,0.00,,,0.00,Wunderground v.1.15,2013-09-20 09:04:00,
2013-09-20 05:08:00,69.4,66.3,29.99,SE,140,0.0,0.0,90,0.00,,,0.00,Wunderground v.1.15,2013-09-20 09:08:00,
2013-09-20 05:09:00,69.4,66.3,29.99,SE,140,0.0,0.0,90,0.00,,,0.00,Wunderground v.1.15,2013-09-20 09:09:00,
2013-09-20 05:11:00,69.4,66.3,29.99,SSW,192,0.0,0.0,90,0.00,,,0.00,Wunderground v.1.15,2013-09-20 09:11:00,
2013-09-20 05:12:00,69.4,66.3,29.99,SW,218,0.0,1.0,90,0.00,,,0.00,Wunderground v.1.15,2013-09-20 09:12:00,
2013-09-20 05:14:00,69.4,66.3,29.99,SW,225,0.0,1.0,90,0.00,,,0.00,Wunderground v.1.15,2013-09-20 09:14:00,
2013-09-20 05:16:00,69.3,66.2,29.99,South,190,0.0,0.0,90,0.00,,,0.00,Wunderground v.1.15,2013-09-20 09:16:00,
2013-09-20 05:17:00,69.3,66.2,29.99,SW,214,0.0,3.0,90,0.00,,,0.00,Wunderground v.1.15,2013-09-20 09:17:00,
2013-09-20 05:18:00,69.3,66.2,29.99,SSW,197,1.0,3.0,90,0.00,,,0.00,Wunderground v.1.15,2013-09-20 09:18:00,
2013-09-20 05:20:00,69.4,66.3,29.99,SSW,197,1.0,3.0,90,0.00,,,0.00,Wunderground v.1.15,2013-09-20 09:20:00,
2013-09-20 05:24:00,69.4,66.3,29.99,SSE,151,1.0,3.0,90,0.00,,,0.00,Wunderground v.1.15,2013-09-20 09:24:00,
2013-09-20 05:26:00,69.4,66.0,29.99,SW,229,1.0,2.0,89,0.00,,,0.00,Wunderground v.1.15,2013-09-20 09:26:00,
2013-09-20 05:29:00,69.5,66.1,29.99,SSW,204,1.0,2.0,89,0.00,,,0.00,Wunderground v.1.15,2013-09-20 09:29:00,
2013-09-20 05:31:00,69.5,66.1,29.99,South,184,1.0,2.0,89,0.00,,,0.00,Wunderground v.1.15,2013-09-20 09:31:00,
2013-09-20 05:33:00,69.5,66.1,29.99,SSW,205,1.0,2.0,89,0.00,,,0.00,Wunderground v.1.15,2013-09-20 09:33:00,
2013-09-20 05:34:00,69.5,66.1,29.99,SSW,203,1.0,2.0,89,0.00,,,0.00,Wunderground v.1.15,2013-09-20 09:34:00,
2013-09-20 05:36:00,69.5,66.1,29.99,SSW,203,1.0,1.0,89,0.00,,,0.00,Wunderground v.1.15,2013-09-20 09:36:00,
2013-09-20 05:38:00,69.5,66.1,29.99,SW,234,1.0,1.0,89,0.00,,,0.00,Wunderground v.1.15,2013-09-20 09:38:00,
2013-09-20 05:40:00,69.5,66.1,29.99,WSW,238,0.0,3.0,89,0.00,,,0.00,Wunderground v.1.15,2013-09-20 09:40:00,
2013-09-20 05:41:00,69.5,66.1,29.99,SW,217,0.0,3.0,89,0.00,,,0.00,Wunderground v.1.15,2013-09-20 09:41:00,
2013-09-20 05:43:00,69.5,66.1,29.99,West,275,0.0,3.0,89,0.00,,,0.00,Wunderground v.1.15,2013-09-20 09:43:00,
2013-09-20 05:46:00,69.5,66.1,29.99,West,273,0.0,1.0,89,0.00,,,0.00,Wunderground v.1.15,2013-09-20 09:46:00,
2013-09-20 05:47:00,69.5,66.1,29.99,SE,134,0.0,1.0,89,0.00,,,0.00,Wunderground v.1.15,2013-09-20 09:47:00,
2013-09-20 05:49:00,69.5,66.1,29.99,SSW,202,1.0,3.0,89,0.00,,,0.00,Wunderground v.1.15,2013-09-20 09:49:00,
2013-09-20 05:51:00,69.5,66.1,29.99,SSW,202,1.0,3.0,89,0.00,,,0.00,Wunderground v.1.15,2013-09-20 09:51:00,
2013-09-20 05:56:00,69.6,66.2,29.99,SSW,192,1.0,1.0,89,0.00,,,0.00,Wunderground v.1.15,2013-09-20 09:56:00,
2013-09-20 05:59:00,69.7,66.3,29.99,WSW,240,0.0,3.0,89,0.00,,,0.00,Wunderground v.1.15,2013-09-20 09:59:00,
2013-09-20 06:00:00,69.7,66.3,29.99,WSW,240,0.0,3.0,89,0.00,,,0.00,Wunderground v.1.15,2013-09-20 10:00:00,
2013-09-20 06:05:00,69.6,66.2,29.99,WSW,240,0.0,0.0,89,0.00,,,0.00,Wunderground v.1.15,2013-09-20 10:05:00,
2013-09-20 06:07:00,69.6,66.2,29.99,WSW,240,0.0,0.0,89,0.00,,,0.00,Wunderground v.1.15,2013-09-20 10:07:00,
2013-09-20 06:08:00,69.5,66.1,29.99,SSW,207,0.0,0.0,89,0.00,,,0.00,Wunderground v.1.15,2013-09-20 10:08:00,
2013-09-20 06:13:00,69.3,65.9,29.99,SSW,207,0.0,0.0,89,0.00,,,0.00,Wunderground v.1.15,2013-09-20 10:13:00,
2013-09-20 06:15:00,69.3,65.9,29.99,SSW,207,0.0,0.0,89,0.00,,,0.00,Wunderground v.1.15,2013-09-20 10:15:00,
2013-09-20 06:18:00,69.2,66.1,29.99,SSW,209,0.0,0.0,90,0.00,,,0.00,Wunderground v.1.15,2013-09-20 10:18:00,
2013-09-20 06:20:00,69.1,66.0,29.99,South,174,0.0,1.0,90,0.00,,,0.00,Wunderground v.1.15,2013-09-20 10:20:00,
2013-09-20 06:23:00,69.0,65.9,29.99,East,84,0.0,1.0,90,0.00,,,0.00,Wunderground v.1.15,2013-09-20 10:23:00,
2013-09-20 06:25:00,69.0,65.9,29.99,SW,215,0.0,0.0,90,0.00,,,0.00,Wunderground v.1.15,2013-09-20 10:25:00,
2013-09-20 06:27:00,69.0,65.9,29.99,SSW,198,0.0,0.0,90,0.00,,,0.00,Wunderground v.1.15,2013-09-20 10:27:00,
2013-09-20 06:29:00,69.0,65.9,29.99,South,182,0.0,0.0,90,0.00,,,0.00,Wunderground v.1.15,2013-09-20 10:29:00,
2013-09-20 06:30:00,69.0,65.9,29.99,South,187,0.0,2.0,90,0.00,,,0.00,Wunderground v.1.15,2013-09-20 10:30:00,
2013-09-20 06:31:00,69.0,65.9,29.99,South,190,0.0,2.0,90,0.00,,,0.00,Wunderground v.1.15,2013-09-20 10:31:00,
2013-09-20 06:34:00,69.0,65.9,29.99,South,182,1.0,4.0,90,0.00,,,0.00,Wunderground v.1.15,2013-09-20 10:34:00,
2013-09-20 06:36:00,69.1,66.0,29.99,South,183,1.0,2.0,90,0.00,,,0.00,Wunderground v.1.15,2013-09-20 10:36:00,
2013-09-20 06:37:00,69.1,66.0,29.99,South,183,1.0,2.0,90,0.00,,,0.00,Wunderground v.1.15,2013-09-20 10:37:00,
2013-09-20 06:40:00,69.1,66.0,29.99,South,189,1.0,3.0,90,0.00,,,0.00,Wunderground v.1.15,2013-09-20 10:40:00,
2013-09-20 06:43:00,69.1,66.0,29.99,SW,219,1.0,3.0,90,0.00,,,0.00,Wunderground v.1.15,2013-09-20 10:43:00,
2013-09-20 06:46:00,69.1,66.0,29.98,SSW,212,0.0,0.0,90,0.00,,,0.00,Wunderground v.1.15,2013-09-20 10:46:00,
2013-09-20 06:50:00,69.2,66.1,29.98,SW,226,0.0,0.0,90,0.00,,,0.00,Wunderground v.1.15,2013-09-20 10:50:00,
2013-09-20 06:52:00,69.2,66.1,29.98,SSE,160,0.0,0.0,90,0.00,,,0.00,Wunderground v.1.15,2013-09-20 10:52:00,
2013-09-20 06:54:00,69.2,66.1,29.98,SSE,160,0.0,0.0,90,0.00,,,0.00,Wunderground v.1.15,2013-09-20 10:54:00,
2013-09-20 06:56:00,69.2,66.1,29.98,South,182,0.0,0.0,90,0.00,,,0.00,Wunderground v.1.15,2013-09-20 10:56:00,
2013-09-20 06:58:00,69.3,66.2,29.98,SW,232,0.0,0.0,90,0.00,,,0.00,Wunderground v.1.15,2013-09-20 10:58:00,
2013-09-20 07:00:00,69.3,66.2,29.98,South,186,0.0,0.0,90,0.00,,,0.00,Wunderground v.1.15,2013-09-20 11:00:00,
2013-09-20 07:02:00,69.3,65.9,29.98,SSW,209,0.0,0.0,89,0.00,,,0.00,Wunderground v.1.15,2013-09-20 11:02:00,
2013-09-20 07:03:00,69.3,65.9,29.98,SSW,209,0.0,0.0,89,0.00,,,0.00,Wunderground v.1.15,2013-09-20 11:03:00,
2013-09-20 07:05:00,69.3,65.9,29.98,South,178,0.0,0.0,89,0.00,,,0.00,Wunderground v.1.15,2013-09-20 11:05:00,
2013-09-20 07:08:00,69.3,65.9,29.98,South,187,1.0,1.0,89,0.00,,,0.00,Wunderground v.1.15,2013-09-20 11:08:00,
2013-09-20 07:09:00,69.3,65.9,29.98,South,187,1.0,1.0,89,0.00,,,0.00,Wunderground v.1.15,2013-09-20 11:09:00,
2013-09-20 07:10:00,69.3,65.9,29.98,South,187,1.0,1.0,89,0.00,,,0.00,Wunderground v.1.15,2013-09-20 11:10:00,
2013-09-20 07:12:00,69.3,65.9,29.98,South,187,1.0,1.0,89,0.00,,,0.00,Wunderground v.1.15,2013-09-20 11:12:00,
2013-09-20 07:13:00,69.3,65.9,29.99,South,187,1.0,1.0,89,0.00,,,0.00,Wunderground v.1.15,2013-09-20 11:13:00,
2013-09-20 07:16:00,69.2,65.8,29.99,SSW,205,0.0,3.0,89,0.00,,,0.00,Wunderground v.1.15,2013-09-20 11:16:00,
2013-09-20 07:17:00,69.2,65.8,29.99,South,184,0.0,3.0,89,0.00,,,0.00,Wunderground v.1.15,2013-09-20 11:17:00,
2013-09-20 07:20:00,69.2,65.8,29.98,SW,232,0.0,3.0,89,0.00,,,0.00,Wunderground v.1.15,2013-09-20 11:20:00,
2013-09-20 07:22:00,69.2,65.8,29.99,SW,223,0.0,3.0,89,0.00,,,0.00,Wunderground v.1.15,2013-09-20 11:22:00,
2013-09-20 07:23:00,69.2,65.8,29.98,SSW,192,0.0,3.0,89,0.00,,,0.00,Wunderground v.1.15,2013-09-20 11:23:00,
2013-09-20 07:24:00,69.1,65.7,29.99,SSW,192,0.0,3.0,89,0.00,,,0.00,Wunderground v.1.15,2013-09-20 11:24:00,
2013-09-20 07:25:00,69.1,65.7,29.98,SSW,192,0.0,0.0,89,0.00,,,0.00,Wunderground v.1.15,2013-09-20 11:25:00,
2013-09-20 07:28:00,69.1,65.7,29.98,SSW,192,0.0,0.0,89,0.00,,,0.00,Wunderground v.1.15,2013-09-20 11:28:00,
2013-09-20 07:31:00,69.0,65.9,29.99,West,279,0.0,0.0,90,0.00,,,0.00,Wunderground v.1.15,2013-09-20 11:31:00,
2013-09-20 07:32:00,69.0,65.9,29.99,SSW,194,0.0,0.0,90,0.00,,,0.00,Wunderground v.1.15,2013-09-20 11:32:00,
2013-09-20 07:35:00,68.9,65.8,29.99,West,264,0.0,1.0,90,0.00,,,0.00,Wunderground v.1.15,2013-09-20 11:35:00,
2013-09-20 07:36:00,68.9,65.8,29.99,West,264,0.0,0.0,90,0.00,,,0.00,Wunderground v.1.15,2013-09-20 11:36:00,
2013-09-20 07:41:00,68.7,65.6,29.99,SSW,192,0.0,1.0,90,0.00,,,0.00,Wunderground v.1.15,2013-09-20 11:41:00,
2013-09-20 07:42:00,68.7,65.6,29.99,West,265,0.0,1.0,90,0.00,,,0.00,Wunderground v.1.15,2013-09-20 11:42:00,
2013-09-20 07:43:00,68.7,65.6,29.99,SE,137,0.0,2.0,90,0.00,,,0.00,Wunderground v.1.15,2013-09-20 11:43:00,
2013-09-20 07:44:00,68.6,65.5,29.99,SE,137,0.0,2.0,90,0.00,,,0.00,Wunderground v.1.15,2013-09-20 11:44:00,
2013-09-20 07:49:00,68.6,65.5,29.99,SSW,198,0.0,1.0,90,0.00,,,0.00,Wunderground v.1.15,2013-09-20 11:49:00,
2013-09-20 07:50:00,68.6,65.5,29.99,SSW,198,1.0,1.0,90,0.00,,,0.00,Wunderground v.1.15,2013-09-20 11:50:00,
2013-09-20 07:51:00,68.6,65.5,29.99,SSW,198,1.0,1.0,90,0.00,,,0.00,Wunderground v.1.15,2013-09-20 11:51:00,
2013-09-20 07:52:00,68.6,65.5,29.99,SSW,205,1.0,1.0,90,0.00,,,0.00,Wunderground v.1.15,2013-09-20 11:52:00,
2013-09-20 07:54:00,68.5,65.4,29.99,WSW,242,1.0,1.0,90,0.00,,,0.00,Wunderground v.1.15,2013-09-20 11:54:00,
2013-09-20 07:55:00,68.5,65.4,29.99,SSW,207,0.0,4.0,90,0.00,,,0.00,Wunderground v.1.15,2013-09-20 11:55:00,
2013-09-20 07:58:00,68.6,65.5,29.99,SSW,207,0.0,4.0,90,0.00,,,0.00,Wunderground v.1.15,2013-09-20 11:58:00,
2013-09-20 07:59:00,68.5,65.4,29.99,SSW,207,0.0,4.0,90,0.00,,,0.00,Wunderground v.1.15,2013-09-20 11:59:00,
2013-09-20 08:00:00,68.5,65.4,29.99,SSW,207,0.0,4.0,90,0.00,,,0.00,Wunderground v.1.15,2013-09-20 12:00:00,
2013-09-20 08:02:00,68.5,65.8,29.99,SSW,207,0.0,4.0,91,0.00,,,0.00,Wunderground v.1.15,2013-09-20 12:02:00,
2013-09-20 08:05:00,68.5,65.8,29.99,SSW,207,0.0,1.0,91,0.00,,,0.00,Wunderground v.1.15,2013-09-20 12:05:00,
2013-09-20 08:08:00,68.5,65.8,29.99,South,188,0.0,1.0,91,0.00,,,0.00,Wunderground v.1.15,2013-09-20 12:08:00,
2013-09-20 08:09:00,68.5,65.8,29.99,South,190,0.0,1.0,91,0.00,,,0.00,Wunderground v.1.15,2013-09-20 12:09:00,
2013-09-20 08:13:00,68.5,65.8,29.99,ESE,116,0.0,1.0,91,0.00,,,0.00,Wunderground v.1.15,2013-09-20 12:13:00,
2013-09-20 08:15:00,68.5,65.8,29.99,WSW,238,0.0,0.0,91,0.00,,,0.00,Wunderground v.1.15,2013-09-20 12:15:00,
2013-09-20 08:16:00,68.5,65.8,29.99,South,183,0.0,1.0,91,0.00,,,0.00,Wunderground v.1.15,2013-09-20 12:16:00,
2013-09-20 08:20:00,68.6,65.9,29.99,SSW,208,0.0,1.0,91,0.00,,,0.00,Wunderground v.1.15,2013-09-20 12:20:00,
2013-09-20 08:21:00,68.6,65.9,29.99,SSE,150,0.0,1.0,91,0.00,,,0.00,Wunderground v.1.15,2013-09-20 12:21:00,
2013-09-20 08:22:00,68.6,65.9,29.99,SSE,151,0.0,1.0,91,0.00,,,0.00,Wunderground v.1.15,2013-09-20 12:22:00,
2013-09-20 08:23:00,68.6,65.9,29.99,SSE,151,0.0,1.0,91,0.00,,,0.00,Wunderground v.1.15,2013-09-20 12:23:00,
2013-09-20 08:28:00,68.7,65.6,29.99,SW,214,0.0,3.0,90,0.00,,,0.00,Wunderground v.1.15,2013-09-20 12:28:00,
2013-09-20 08:29:00,68.8,65.7,29.99,SW,214,0.0,3.0,90,0.00,,,0.00,Wunderground v.1.15,2013-09-20 12:29:00,
2013-09-20 08:30:00,68.8,65.7,29.99,SW,232,0.0,3.0,90,0.00,,,0.00,Wunderground v.1.15,2013-09-20 12:30:00,
2013-09-20 08:32:00,68.8,65.7,29.99,WSW,239,1.0,3.0,90,0.00,,,0.00,Wunderground v.1.15,2013-09-20 12:32:00,
2013-09-20 08:34:00,68.9,65.8,29.99,NW,305,1.0,3.0,90,0.00,,,0.00,Wunderground v.1.15,2013-09-20 12:34:00,
2013-09-20 08:35:00,69.0,65.9,30.00,SSW,197,1.0,1.0,90,0.00,,,0.00,Wunderground v.1.15,2013-09-20 12:35:00,
2013-09-20 08:41:00,69.2,66.1,29.99,South,178,1.0,5.0,90,0.00,,,0.00,Wunderground v.1.15,2013-09-20 12:41:00,
2013-09-20 08:43:00,69.2,66.1,29.99,SSE,168,0.0,5.0,90,0.00,,,0.00,Wunderground v.1.15,2013-09-20 12:43:00,
2013-09-20 08:46:00,69.3,65.9,29.99,SSW,207,0.0,3.0,89,0.00,,,0.00,Wunderground v.1.15,2013-09-20 12:46:00,
2013-09-20 08:48:00,69.5,66.1,29.99,West,265,1.0,3.0,89,0.00,,,0.00,Wunderground v.1.15,2013-09-20 12:48:00,
2013-09-20 08:49:00,69.5,66.4,29.99,West,265,0.0,3.0,90,0.00,,,0.00,Wunderground v.1.15,2013-09-20 12:49:00,
2013-09-20 08:51:00,69.6,66.2,29.99,ESE,118,1.0,3.0,89,0.00,,,0.00,Wunderground v.1.15,2013-09-20 12:51:00,
2013-09-20 08:52:00,69.6,66.2,29.99,ESE,118,1.0,3.0,89,0.00,,,0.00,Wunderground v.1.15,2013-09-20 12:52:00,
2013-09-20 08:54:00,69.7,66.6,29.99,SSW,194,0.0,3.0,90,0.00,,,0.00,Wunderground v.1.15,2013-09-20 12:54:00,
2013-09-20 08:56:00,69.8,66.4,29.99,SW,229,0.0,1.0,89,0.00,,,0.00,Wunderground v.1.15,2013-09-20 12:56:00,
2013-09-20 08:58:00,70.0,66.6,29.99,SW,229,0.0,1.0,89,0.00,,,0.00,Wunderground v.1.15,2013-09-20 12:58:00,
2013-09-20 08:59:00,70.0,66.6,29.99,SW,229,0.0,1.0,89,0.00,,,0.00,Wunderground v.1.15,2013-09-20 12:59:00,
2013-09-20 09:05:00,70.3,66.9,29.99,SW,225,0.0,4.0,89,0.00,,,0.00,Wunderground v.1.15,2013-09-20 13:05:00,
2013-09-20 09:07:00,70.5,67.1,29.99,SSW,192,1.0,2.0,89,0.00,,,0.00,Wunderground v.1.15,2013-09-20 13:07:00,
2013-09-20 09:10:00,70.8,67.1,29.99,WNW,303,1.0,3.0,88,0.00,,,0.00,Wunderground v.1.15,2013-09-20 13:10:00,
2013-09-20 09:11:00,70.9,67.2,29.99,WNW,303,1.0,3.0,88,0.00,,,0.00,Wunderground v.1.15,2013-09-20 13:11:00,
2013-09-20 09:12:00,70.9,67.2,29.99,WNW,303,1.0,3.0,88,0.00,,,0.00,Wunderground v.1.15,2013-09-20 13:12:00,
2013-09-20 09:13:00,71.0,67.3,29.99,WNW,303,1.0,3.0,88,0.00,,,0.00,Wunderground v.1.15,2013-09-20 13:13:00,
2013-09-20 09:14:00,71.1,67.4,29.99,SSW,205,1.0,3.0,88,0.00,,,0.00,Wunderground v.1.15,2013-09-20 13:14:00,
2013-09-20 09:18:00,71.4,67.0,29.99,South,190,1.0,3.0,86,0.00,,,0.00,Wunderground v.1.15,2013-09-20 13:18:00,
2013-09-20 09:20:00,71.5,67.4,29.99,South,190,1.0,3.0,87,0.00,,,0.00,Wunderground v.1.15,2013-09-20 13:20:00,
2013-09-20 09:21:00,71.6,67.5,29.99,WSW,254,1.0,3.0,87,0.00,,,0.00,Wunderground v.1.15,2013-09-20 13:21:00,
2013-09-20 09:23:00,71.6,67.2,29.99,South,190,1.0,3.0,86,0.00,,,0.00,Wunderground v.1.15,2013-09-20 13:23:00,
2013-09-20 09:26:00,71.7,67.3,29.99,SSW,197,1.0,5.0,86,0.00,,,0.00,Wunderground v.1.15,2013-09-20 13:26:00,
2013-09-20 09:28:00,71.7,66.9,29.99,South,185,1.0,5.0,85,0.00,,,0.00,Wunderground v.1.15,2013-09-20 13:28:00,
2013-09-20 09:29:00,71.8,67.4,29.99,SE,146,1.0,5.0,86,0.00,,,0.00,Wunderground v.1.15,2013-09-20 13:29:00,
2013-09-20 09:30:00,71.8,67.4,29.99,SE,146,1.0,5.0,86,0.00,,,0.00,Wunderground v.1.15,2013-09-20 13:30:00,
2013-09-20 09:32:00,71.9,67.1,29.99,SSW,205,1.0,5.0,85,0.00,,,0.00,Wunderground v.1.15,2013-09-20 13:32:00,
2013-09-20 09:33:00,71.9,67.5,29.99,SW,234,1.0,5.0,86,0.00,,,0.00,Wunderground v.1.15,2013-09-20 13:33:00,
2013-09-20 09:36:00,72.0,67.6,29.99,SW,215,1.0,2.0,86,0.00,,,0.00,Wunderground v.1.15,2013-09-20 13:36:00,
2013-09-20 09:38:00,72.1,67.3,29.99,SSW,194,1.0,3.0,85,0.00,,,0.00,Wunderground v.1.15,2013-09-20 13:38:00,
2013-09-20 09:40:00,72.1,67.3,29.99,SW,219,1.0,3.0,85,0.00,,,0.00,Wunderground v.1.15,2013-09-20 13:40:00,
2013-09-20 09:42:00,72.1,67.3,29.99,WNW,291,1.0,3.0,85,0.00,,,0.00,Wunderground v.1.15,2013-09-20 13:42:00,
2013-09-20 09:44:00,72.1,67.7,29.99,WNW,294,1.0,3.0,86,0.00,,,0.00,Wunderground v.1.15,2013-09-20 13:44:00,
2013-09-20 09:45:00,72.2,67.8,29.99,WNW,302,1.0,1.0,86,0.00,,,0.00,Wunderground v.1.15,2013-09-20 13:45:00,
2013-09-20 09:46:00,72.2,67.4,29.99,WSW,253,1.0,1.0,85,0.00,,,0.00,Wunderground v.1.15,2013-09-20 13:46:00,
2013-09-20 09:47:00,72.2,67.4,29.99,SW,234,0.0,1.0,85,0.00,,,0.00,Wunderground v.1.15,2013-09-20 13:47:00,
2013-09-20 09:48:00,72.2,67.4,29.99,SSW,207,0.0,1.0,85,0.00,,,0.00,Wunderground v.1.15,2013-09-20 13:48:00,
2013-09-20 09:52:00,72.2,67.4,29.99,South,190,1.0,2.0,85,0.00,,,0.00,Wunderground v.1.15,2013-09-20 13:52:00,
2013-09-20 09:53:00,72.3,67.5,29.99,South,190,1.0,2.0,85,0.00,,,0.00,Wunderground v.1.15,2013-09-20 13:53:00,
2013-09-20 09:56:00,72.3,67.2,29.99,WSW,254,1.0,1.0,84,0.00,,,0.00,Wunderground v.1.15,2013-09-20 13:56:00,
2013-09-20 09:58:00,72.3,67.2,29.99,SSW,196,1.0,5.0,84,0.00,,,0.00,Wunderground v.1.15,2013-09-20 13:58:00,
2013-09-20 09:59:00,72.3,67.5,29.99,SSW,192,1.0,5.0,85,0.00,,,0.00,Wunderground v.1.15,2013-09-20 13:59:00,
2013-09-20 10:01:00,72.3,67.5,29.99,SSW,212,1.0,5.0,85,0.00,,,0.00,Wunderground v.1.15,2013-09-20 14:01:00,
2013-09-20 10:03:00,72.4,67.3,29.99,SSE,155,1.0,5.0,84,0.00,,,0.00,Wunderground v.1.15,2013-09-20 14:03:00,
2013-09-20 10:05:00,72.4,67.3,29.99,SSE,155,1.0,5.0,84,0.00,,,0.00,Wunderground v.1.15,2013-09-20 14:05:00,
2013-09-20 10:09:00,72.5,67.0,29.99,SSW,209,1.0,6.0,83,0.00,,,0.00,Wunderground v.1.15,2013-09-20 14:09:00,
2013-09-20 10:10:00,72.5,67.7,29.99,SSW,201,1.0,6.0,85,0.00,,,0.00,Wunderground v.1.15,2013-09-20 14:10:00,
2013-09-20 10:12:00,72.5,67.7,29.99,South,188,1.0,6.0,85,0.00,,,0.00,Wunderground v.1.15,2013-09-20 14:12:00,
2013-09-20 10:17:00,72.8,67.7,29.99,West,267,1.0,4.0,84,0.00,,,0.00,Wunderground v.1.15,2013-09-20 14:17:00,
2013-09-20 10:19:00,72.9,67.8,29.99,SW,229,1.0,4.0,84,0.00,,,0.00,Wunderground v.1.15,2013-09-20 14:19:00,
2013-09-20 10:20:00,73.0,67.9,29.99,West,275,1.0,4.0,84,0.00,,,0.00,Wunderground v.1.15,2013-09-20 14:20:00,
2013-09-20 10:24:00,73.3,67.8,29.99,WSW,253,1.0,4.0,83,0.00,,,0.00,Wunderground v.1.15,2013-09-20 14:24:00,
2013-09-20 10:27:00,73.5,67.7,29.99,SSW,199,2.0,3.0,82,0.00,,,0.00,Wunderground v.1.15,2013-09-20 14:27:00,
2013-09-20 10:30:00,73.6,67.8,29.99,SSE,159,2.0,6.0,82,0.00,,,0.00,Wunderground v.1.15,2013-09-20 14:30:00,
2013-09-20 10:32:00,73.7,68.2,29.99,NNW,333,2.0,6.0,83,0.00,,,0.00,Wunderground v.1.15,2013-09-20 14:32:00,
2013-09-20 10:34:00,73.9,68.1,29.99,South,189,2.0,6.0,82,0.00,,,0.00,Wunderground v.1.15,2013-09-20 14:34:00,
2013-09-20 10:36:00,74.0,68.2,29.99,South,189,2.0,2.0,82,0.00,,,0.00,Wunderground v.1.15,2013-09-20 14:36:00,
2013-09-20 10:38:00,74.2,68.3,29.99,West,266,1.0,2.0,82,0.00,,,0.00,Wunderground v.1.15,2013-09-20 14:38:00,
2013-09-20 10:43:00,74.6,68.7,29.98,SSE,148,1.0,6.0,82,0.00,,,0.00,Wunderground v.1.15,2013-09-20 14:43:00,
2013-09-20 10:44:00,74.7,68.8,29.98,SSE,150,1.0,6.0,82,0.00,,,0.00,Wunderground v.1.15,2013-09-20 14:44:00,
2013-09-20 10:45:00,74.8,68.6,29.98,SSW,203,1.0,1.0,81,0.00,,,0.00,Wunderground v.1.15,2013-09-20 14:45:00,
2013-09-20 10:48:00,75.2,69.0,29.98,SSW,207,1.0,1.0,81,0.00,,,0.00,Wunderground v.1.15,2013-09-20 14:48:00,
2013-09-20 10:50:00,75.4,69.2,29.98,West,275,1.0,4.0,81,0.00,,,0.00,Wunderground v.1.15,2013-09-20 14:50:00,
2013-09-20 10:52:00,75.6,69.0,29.98,SSE,165,2.0,4.0,80,0.00,,,0.00,Wunderground v.1.15,2013-09-20 14:52:00,
2013-09-20 10:55:00,75.9,69.3,29.98,SSE,147,1.0,1.0,80,0.00,,,0.00,Wunderground v.1.15,2013-09-20 14:55:00,
2013-09-20 10:58:00,76.1,69.5,29.98,NW,307,1.0,2.0,80,0.00,,,0.00,Wunderground v.1.15,2013-09-20 14:58:00,
2013-09-20 10:59:00,76.3,69.7,29.98,South,186,1.0,2.0,80,0.00,,,0.00,Wunderground v.1.15,2013-09-20 14:59:00,
2013-09-20 11:03:00,76.8,70.2,29.98,SW,235,1.0,3.0,80,0.00,,,0.00,Wunderground v.1.15,2013-09-20 15:03:00,
2013-09-20 11:04:00,76.9,69.9,29.98,SW,233,1.0,3.0,79,0.00,,,0.00,Wunderground v.1.15,2013-09-20 15:04:00,
2013-09-20 11:05:00,76.9,69.9,29.98,SW,233,1.0,1.0,79,0.00,,,0.00,Wunderground v.1.15,2013-09-20 15:05:00,
2013-09-20 11:06:00,77.0,70.4,29.98,SW,233,1.0,1.0,80,0.00,,,0.00,Wunderground v.1.15,2013-09-20 15:06:00,
2013-09-20 11:08:00,77.1,70.5,29.98,SSW,213,1.0,1.0,80,0.00,,,0.00,Wunderground v.1.15,2013-09-20 15:08:00,
2013-09-20 11:10:00,77.3,69.5,29.98,SSW,198,1.0,2.0,77,0.00,,,0.00,Wunderground v.1.15,2013-09-20 15:10:00,
2013-09-20 11:11:00,77.4,70.0,29.98,SSW,198,1.0,2.0,78,0.00,,,0.00,Wunderground v.1.15,2013-09-20 15:11:00,
2013-09-20 11:12:00,77.5,70.5,29.98,South,191,1.0,2.0,79,0.00,,,0.00,Wunderground v.1.15,2013-09-20 15:12:00,
2013-09-20 11:13:00,69.4,68.2,29.85,WSW,238,0.0,0.0,96,0.06,,,0.28,Wunderground v.1.15,2013-09-20 15:13:00,
2013-09-20 11:16:00,77.8,70.0,29.97,WSW,246,2.0,2.0,77,0.00,,,0.00,Wunderground v.1.15,2013-09-20 15:16:00,
2013-09-20 11:17:00,78.0,69.8,29.97,NNW,331,2.0,2.0,76,0.00,,,0.00,Wunderground v.1.15,2013-09-20 15:17:00,
2013-09-20 11:18:00,78.0,69.8,29.97,West,273,2.0,2.0,76,0.00,,,0.00,Wunderground v.1.15,2013-09-20 15:18:00,
2013-09-20 11:19:00,78.1,69.9,29.97,West,273,2.0,2.0,76,0.00,,,0.00,Wunderground v.1.15,2013-09-20 15:19:00,
2013-09-20 11:22:00,69.4,68.2,29.86,WSW,238,0.0,0.0,96,0.00,,,0.28,Wunderground v.1.15,2013-09-20 15:22:00,
2013-09-20 11:24:00,78.3,70.9,29.97,WNW,290,2.0,2.0,78,0.00,,,0.00,Wunderground v.1.15,2013-09-20 15:24:00,
2013-09-20 11:25:00,78.4,70.2,29.97,South,169,1.0,5.0,76,0.00,,,0.00,Wunderground v.1.15,2013-09-20 15:25:00,
2013-09-20 11:29:00,78.5,70.3,29.97,WSW,239,1.0,5.0,76,0.00,,,0.00,Wunderground v.1.15,2013-09-20 15:29:00,
2013-09-20 11:30:00,69.4,68.2,29.85,WSW,238,0.0,0.0,96,1.32,,,0.32,Wunderground v.1.15,2013-09-20 15:30:00,
2013-09-20 11:31:00,78.5,69.9,29.98,WNW,298,2.0,5.0,75,0.00,,,0.00,Wunderground v.1.15,2013-09-20 15:31:00,
2013-09-20 11:32:00,78.5,69.5,29.97,SW,224,2.0,5.0,74,0.00,,,0.00,Wunderground v.1.15,2013-09-20 15:32:00,
2013-09-20 11:33:00,69.4,68.2,29.85,WSW,238,0.0,0.0,96,0.18,,,0.33,Wunderground v.1.15,2013-09-20 15:33:00,
2013-09-20 11:34:00,78.6,70.4,29.97,SW,224,2.0,5.0,76,0.00,,,0.00,Wunderground v.1.15,2013-09-20 15:34:00,
2013-09-20 11:35:00,78.6,70.8,29.97,WNW,284,2.0,2.0,77,0.00,,,0.00,Wunderground v.1.15,2013-09-20 15:35:00,
2013-09-20 11:38:00,69.3,68.1,29.85,WSW,240,0.0,0.0,96,0.18,,,0.34,Wunderground v.1.15,2013-09-20 15:38:00,
2013-09-20 11:41:00,78.7,70.1,29.97,NW,317,3.0,6.0,75,0.00,,,0.00,Wunderground v.1.15,2013-09-20 15:41:00,
2013-09-20 11:46:00,79.0,70.0,29.97,SSW,196,3.0,3.0,74,0.00,,,0.00,Wunderground v.1.15,2013-09-20 15:46:00,
2013-09-20 11:47:00,79.1,70.1,29.97,SSE,161,3.0,3.0,74,0.00,,,0.00,Wunderground v.1.15,2013-09-20 15:47:00,
2013-09-20 11:49:00,79.1,70.1,29.97,WSW,255,2.0,3.0,74,0.00,,,0.00,Wunderground v.1.15,2013-09-20 15:49:00,
2013-09-20 11:51:00,79.2,70.6,29.97,SSW,202,2.0,3.0,75,0.00,,,0.00,Wunderground v.1.15,2013-09-20 15:51:00,
2013-09-20 11:52:00,79.1,70.1,29.97,SSW,208,2.0,3.0,74,0.00,,,0.00,Wunderground v.1.15,2013-09-20 15:52:00,
2013-09-20 11:53:00,79.1,70.5,29.97,SSW,210,2.0,4.0,75,0.00,,,0.00,Wunderground v.1.15,2013-09-20 15:53:00,
2013-09-20 11:55:00,79.1,70.1,29.97,WNW,297,2.0,4.0,74,0.00,,,0.00,Wunderground v.1.15,2013-09-20 15:55:00,
2013-09-20 11:59:00,79.1,70.1,29.97,SSW,198,2.0,2.0,74,0.00,,,0.00,Wunderground v.1.15,2013-09-20 15:59:00,
2013-09-20 12:00:00,79.1,70.1,29.97,SSW,209,2.0,2.0,74,0.00,,,0.00,Wunderground v.1.15,2013-09-20 16:00:00,
2013-09-20 12:02:00,79.2,70.2,29.96,SSW,211,2.0,2.0,74,0.00,,,0.00,Wunderground v.1.15,2013-09-20 16:02:00,
2013-09-20 12:03:00,79.3,70.3,29.96,WNW,287,2.0,3.0,74,0.00,,,0.00,Wunderground v.1.15,2013-09-20 16:03:00,
2013-09-20 12:04:00,68.9,67.7,29.85,West,280,0.0,1.0,96,0.05,,,0.43,Wunderground v.1.15,2013-09-20 16:04:00,
2013-09-20 12:05:00,79.3,70.7,29.96,SSW,196,2.0,2.0,75,0.00,,,0.00,Wunderground v.1.15,2013-09-20 16:05:00,
2013-09-20 12:07:00,79.4,70.4,29.96,WSW,240,2.0,3.0,74,0.00,,,0.00,Wunderground v.1.15,2013-09-20 16:07:00,
2013-09-20 12:08:00,79.4,70.0,29.96,South,175,2.0,3.0,73,0.00,,,0.00,Wunderground v.1.15,2013-09-20 16:08:00,
2013-09-20 12:09:00,68.7,67.5,29.84,NNE,13,0.0,2.0,96,0.00,,,0.43,Wunderground v.1.15,2013-09-20 16:09:00,
2013-09-20 12:10:00,68.6,67.4,29.85,NNE,13,0.0,0.0,96,0.00,,,0.43,Wunderground v.1.15,2013-09-20 16:10:00,
2013-09-20 12:12:00,79.6,70.6,29.96,WNW,296,2.0,4.0,74,0.00,,,0.00,Wunderground v.1.15,2013-09-20 16:12:00,
2013-09-20 12:13:00,68.5,67.3,29.85,NNE,13,0.0,0.0,96,0.00,,,0.43,Wunderground v.1.15,2013-09-20 16:13:00,
2013-09-20 12:14:00,79.8,70.8,29.96,South,181,3.0,4.0,74,0.00,,,0.00,Wunderground v.1.15,2013-09-20 16:14:00,
2013-09-20 12:15:00,79.9,70.9,29.96,SW,223,3.0,3.0,74,0.00,,,0.00,Wunderground v.1.15,2013-09-20 16:15:00,
2013-09-20 12:16:00,68.4,67.2,29.85,NNE,13,0.0,0.0,96,0.00,,,0.43,Wunderground v.1.15,2013-09-20 16:16:00,
2013-09-20 12:19:00,80.4,70.5,29.96,SW,223,3.0,5.0,72,0.00,,,0.00,Wunderground v.1.15,2013-09-20 16:19:00,
2013-09-20 12:20:00,80.4,70.9,29.96,SW,232,3.0,5.0,73,0.00,,,0.00,Wunderground v.1.15,2013-09-20 16:20:00,
2013-09-20 12:21:00,80.4,70.9,29.95,WSW,255,2.0,5.0,73,0.00,,,0.00,Wunderground v.1.15,2013-09-20 16:21:00,
2013-09-20 12:23:00,80.5,71.0,29.95,WSW,253,2.0,5.0,73,0.00,,,0.00,Wunderground v.1.15,2013-09-20 16:23:00,
2013-09-20 12:25:00,80.5,71.0,29.96,NNW,346,2.0,2.0,73,0.00,,,0.00,Wunderground v.1.15,2013-09-20 16:25:00,
2013-09-20 12:26:00,80.5,71.4,29.96,SSW,196,1.0,2.0,74,0.00,,,0.00,Wunderground v.1.15,2013-09-20 16:26:00,
2013-09-20 12:28:00,80.5,71.4,29.95,SSW,213,1.0,2.0,74,0.00,,,0.00,Wunderground v.1.15,2013-09-20 16:28:00,
2013-09-20 12:30:00,80.6,71.5,29.95,South,170,1.0,2.0,74,0.00,,,0.00,Wunderground v.1.15,2013-09-20 16:30:00,
2013-09-20 12:33:00,80.7,71.6,29.95,South,175,1.0,5.0,74,0.00,,,0.00,Wunderground v.1.15,2013-09-20 16:33:00,
2013-09-20 12:34:00,80.8,70.5,29.95,NNW,329,1.0,5.0,71,0.00,,,0.00,Wunderground v.1.15,2013-09-20 16:34:00,
2013-09-20 12:35:00,80.9,70.6,29.95,SSW,197,1.0,3.0,71,0.00,,,0.00,Wunderground v.1.15,2013-09-20 16:35:00,
2013-09-20 12:36:00,80.9,71.0,29.95,WSW,240,1.0,3.0,72,0.00,,,0.00,Wunderground v.1.15,2013-09-20 16:36:00,
2013-09-20 12:39:00,81.0,71.1,29.95,West,271,2.0,3.0,72,0.00,,,0.00,Wunderground v.1.15,2013-09-20 16:39:00,
2013-09-20 12:40:00,80.9,71.0,29.95,South,175,2.0,3.0,72,0.00,,,0.00,Wunderground v.1.15,2013-09-20 16:40:00,
2013-09-20 12:43:00,80.8,71.7,29.95,West,264,2.0,3.0,74,0.00,,,0.00,Wunderground v.1.15,2013-09-20 16:43:00,
2013-09-20 12:44:00,80.7,71.2,29.95,SSW,193,2.0,3.0,73,0.00,,,0.00,Wunderground v.1.15,2013-09-20 16:44:00,
2013-09-20 12:46:00,67.9,66.7,29.85,NE,50,0.0,0.0,96,0.16,,,0.48,Wunderground v.1.15,2013-09-20 16:46:00,
2013-09-20 12:49:00,80.6,71.1,29.95,South,189,2.0,4.0,73,0.00,,,0.00,Wunderground v.1.15,2013-09-20 16:49:00,
2013-09-20 12:52:00,80.7,71.2,29.95,SW,216,2.0,4.0,73,0.00,,,0.00,Wunderground v.1.15,2013-09-20 16:52:00,
2013-09-20 12:53:00,80.8,70.9,29.95,South,174,2.0,7.0,72,0.00,,,0.00,Wunderground v.1.15,2013-09-20 16:53:00,
2013-09-20 12:56:00,80.8,71.3,29.95,South,183,2.0,2.0,73,0.00,,,0.00,Wunderground v.1.15,2013-09-20 16:56:00,
2013-09-20 12:57:00,80.8,71.7,29.95,SSW,209,2.0,3.0,74,0.00,,,0.00,Wunderground v.1.15,2013-09-20 16:57:00,
2013-09-20 13:00:00,80.7,71.2,29.95,WNW,294,2.0,3.0,73,0.00,,,0.00,Wunderground v.1.15,2013-09-20 17:00:00,
2013-09-20 13:02:00,80.6,70.7,29.95,West,267,2.0,4.0,72,0.00,,,0.00,Wunderground v.1.15,2013-09-20 17:02:00,
2013-09-20 13:03:00,80.6,70.7,29.95,SE,139,2.0,4.0,72,0.00,,,0.00,Wunderground v.1.15,2013-09-20 17:03:00,
2013-09-20 13:04:00,80.6,71.5,29.94,NNW,338,1.0,4.0,74,0.00,,,0.00,Wunderground v.1.15,2013-09-20 17:04:00,
2013-09-20 13:05:00,80.5,71.4,29.94,South,180,1.0,3.0,74,0.00,,,0.00,Wunderground v.1.15,2013-09-20 17:05:00,
2013-09-20 13:06:00,67.5,66.3,29.85,WNW,295,0.0,1.0,96,0.07,,,0.00,Wunderground v.1.15,2013-09-20 17:06:00,
2013-09-20 13:07:00,67.5,66.3,29.85,WNW,295,0.0,1.0,96,0.07,,,0.00,Wunderground v.1.15,2013-09-20 17:07:00,
2013-09-20 13:08:00,80.7,72.0,29.94,South,178,1.0,3.0,75,0.00,,,0.00,Wunderground v.1.15,2013-09-20 17:08:00,
2013-09-20 13:09:00,67.4,66.2,29.85,West,281,0.0,1.0,96,0.07,,,0.00,Wunderground v.1.15,2013-09-20 17:09:00,
2013-09-20 13:10:00,80.8,72.1,29.94,West,259,1.0,3.0,75,0.00,,,0.00,Wunderground v.1.15,2013-09-20 17:10:00,
2013-09-20 13:11:00,67.4,66.2,29.85,West,281,0.0,0.0,96,0.05,,,0.01,Wunderground v.1.15,2013-09-20 17:11:00,
2013-09-20 13:12:00,67.4,66.2,29.85,West,281,0.0,0.0,96,0.05,,,0.01,Wunderground v.1.15,2013-09-20 17:12:00,
2013-09-20 13:13:00,67.4,66.2,29.85,West,281,0.0,0.0,96,0.05,,,0.01,Wunderground v.1.15,2013-09-20 17:13:00,
2013-09-20 13:14:00,80.7,72.0,29.94,WSW,242,1.0,3.0,75,0.00,,,0.00,Wunderground v.1.15,2013-09-20 17:14:00,
2013-09-20 13:15:00,67.4,66.2,29.85,West,281,0.0,0.0,96,0.28,,,0.02,Wunderground v.1.15,2013-09-20 17:15:00,
2013-09-20 13:16:00,67.4,66.2,29.85,WNW,291,0.0,0.0,96,0.21,,,0.02,Wunderground v.1.15,2013-09-20 17:16:00,
2013-09-20 13:17:00,80.5,71.8,29.94,South,182,1.0,2.0,75,0.00,,,0.00,Wunderground v.1.15,2013-09-20 17:17:00,
2013-09-20 13:18:00,80.4,71.3,29.94,WNW,291,1.0,2.0,74,0.00,,,0.00,Wunderground v.1.15,2013-09-20 17:18:00,
2013-09-20 13:19:00,80.3,71.3,29.94,SW,218,1.0,2.0,74,0.00,,,0.00,Wunderground v.1.15,2013-09-20 17:19:00,
2013-09-20 13:20:00,80.2,71.2,29.94,West,267,1.0,2.0,74,0.00,,,0.00,Wunderground v.1.15,2013-09-20 17:20:00,
2013-09-20 13:21:00,67.4,66.2,29.85,WNW,298,0.0,1.0,96,0.29,,,0.04,Wunderground v.1.15,2013-09-20 17:21:00,
2013-09-20 13:22:00,67.3,66.1,29.85,WNW,298,0.0,1.0,96,0.21,,,0.04,Wunderground v.1.15,2013-09-20 17:22:00,
2013-09-20 13:23:00,67.3,66.1,29.85,WNW,298,0.0,1.0,96,0.15,,,0.04,Wunderground v.1.15,2013-09-20 17:23:00,
2013-09-20 13:24:00,80.2,70.8,29.94,WNW,292,1.0,3.0,73,0.00,,,0.00,Wunderground v.1.15,2013-09-20 17:24:00,
2013-09-20 13:25:00,67.3,66.1,29.85,WNW,282,0.0,1.0,96,0.10,,,0.04,Wunderground v.1.15,2013-09-20 17:25:00,
2013-09-20 13:26:00,67.3,66.1,29.85,North,360,0.0,1.0,96,0.09,,,0.04,Wunderground v.1.15,2013-09-20 17:26:00,
2013-09-20 13:27:00,67.2,66.0,29.85,North,360,0.0,1.0,96,0.08,,,0.05,Wunderground v.1.15,2013-09-20 17:27:00,
2013-09-20 13:28:00,80.1,71.1,29.94,WNW,284,1.0,2.0,74,0.00,,,0.00,Wunderground v.1.15,2013-09-20 17:28:00,
2013-09-20 13:29:00,67.2,66.0,29.85,North,360,0.0,1.0,96,0.08,,,0.05,Wunderground v.1.15,2013-09-20 17:29:00,
2013-09-20 13:30:00,79.7,71.1,29.94,West,280,1.0,2.0,75,0.00,,,0.00,Wunderground v.1.15,2013-09-20 17:30:00,
2013-09-20 13:31:00,67.1,65.9,29.85,North,355,0.0,1.0,96,0.19,,,0.06,Wunderground v.1.15,2013-09-20 17:31:00,
2013-09-20 13:32:00,67.1,65.9,29.85,North,355,0.0,1.0,96,0.19,,,0.06,Wunderground v.1.15,2013-09-20 17:32:00,
2013-09-20 13:33:00,79.3,71.1,29.94,NW,321,1.0,3.0,76,0.00,,,0.00,Wunderground v.1.15,2013-09-20 17:33:00,
2013-09-20 13:34:00,67.1,65.9,29.85,SW,231,0.0,1.0,96,0.13,,,0.06,Wunderground v.1.15,2013-09-20 17:34:00,
2013-09-20 13:35:00,67.1,65.9,29.85,SW,231,0.0,1.0,96,0.12,,,0.06,Wunderground v.1.15,2013-09-20 17:35:00,
2013-09-20 13:36:00,79.1,70.9,29.94,SSW,210,1.0,3.0,76,0.00,,,0.00,Wunderground v.1.15,2013-09-20 17:36:00,
2013-09-20 13:37:00,67.0,65.8,29.85,SW,231,0.0,1.0,96,0.12,,,0.07,Wunderground v.1.15,2013-09-20 17:37:00,
2013-09-20 13:38:00,78.8,71.0,29.94,NW,311,1.0,3.0,77,0.00,,,0.00,Wunderground v.1.15,2013-09-20 17:38:00,
2013-09-20 13:39:00,67.0,65.8,29.85,SW,231,0.0,1.0,96,0.23,,,0.08,Wunderground v.1.15,2013-09-20 17:39:00,
2013-09-20 13:40:00,78.7,70.1,29.94,NW,321,1.0,3.0,75,0.00,,,0.00,Wunderground v.1.15,2013-09-20 17:40:00,
2013-09-20 13:41:00,67.0,65.8,29.85,SW,231,0.0,0.0,96,0.17,,,0.08,Wunderground v.1.15,2013-09-20 17:41:00,
2013-09-20 13:42:00,78.5,69.9,29.94,SW,223,1.0,3.0,75,0.00,,,0.00,Wunderground v.1.15,2013-09-20 17:42:00,
2013-09-20 13:43:00,78.4,69.8,29.93,SW,221,1.0,4.0,75,0.00,,,0.00,Wunderground v.1.15,2013-09-20 17:43:00,
2013-09-20 13:44:00,67.0,65.8,29.85,SW,231,0.0,0.0,96,0.11,,,0.09,Wunderground v.1.15,2013-09-20 17:44:00,
2013-09-20 13:45:00,78.3,70.1,29.94,WSW,250,1.0,1.0,76,0.00,,,0.00,Wunderground v.1.15,2013-09-20 17:45:00,
2013-09-20 13:46:00,78.3,70.1,29.94,West,271,1.0,1.0,76,0.00,,,0.00,Wunderground v.1.15,2013-09-20 17:46:00,
2013-09-20 13:47:00,67.0,65.8,29.85,SW,231,0.0,0.0,96,0.19,,,0.10,Wunderground v.1.15,2013-09-20 17:47:00,
2013-09-20 13:48:00,67.0,65.8,29.85,SW,231,0.0,0.0,96,0.19,,,0.10,Wunderground v.1.15,2013-09-20 17:48:00,
2013-09-20 13:49:00,78.3,70.5,29.93,ENE,69,1.0,3.0,77,0.00,,,0.00,Wunderground v.1.15,2013-09-20 17:49:00,
2013-09-20 13:50:00,67.0,65.8,29.85,SW,231,0.0,0.0,96,0.15,,,0.10,Wunderground v.1.15,2013-09-20 17:50:00,
2013-09-20 13:51:00,78.3,70.9,29.93,NNW,339,1.0,3.0,78,0.00,,,0.00,Wunderground v.1.15,2013-09-20 17:51:00,
2013-09-20 13:52:00,67.0,65.8,29.85,SW,231,0.0,0.0,96,0.15,,,0.11,Wunderground v.1.15,2013-09-20 17:52:00,
2013-09-20 13:53:00,66.9,65.7,29.85,SW,231,0.0,0.0,96,0.27,,,0.12,Wunderground v.1.15,2013-09-20 17:53:00,
2013-09-20 13:54:00,78.3,70.1,29.93,WSW,253,2.0,8.0,76,0.00,,,0.00,Wunderground v.1.15,2013-09-20 17:54:00,
2013-09-20 13:55:00,78.5,70.3,29.93,SSW,194,2.0,2.0,76,0.00,,,0.00,Wunderground v.1.15,2013-09-20 17:55:00,
2013-09-20 13:56:00,78.7,70.9,29.93,WNW,284,2.0,2.0,77,0.00,,,0.00,Wunderground v.1.15,2013-09-20 17:56:00,
2013-09-20 13:57:00,78.8,70.6,29.93,West,281,2.0,3.0,76,0.00,,,0.00,Wunderground v.1.15,2013-09-20 17:57:00,
2013-09-20 13:58:00,66.8,65.6,29.85,SW,231,0.0,0.0,96,0.11,,,0.12,Wunderground v.1.15,2013-09-20 17:58:00,
2013-09-20 13:59:00,66.8,65.6,29.85,SW,231,0.0,0.0,96,0.10,,,0.13,Wunderground v.1.15,2013-09-20 17:59:00,
2013-09-20 14:00:00,66.8,65.6,29.85,SW,231,0.0,0.0,96,0.10,,,0.13,Wunderground v.1.15,2013-09-20 18:00:00,
2013-09-20 14:01:00,66.8,65.6,29.85,SW,231,0.0,0.0,96,0.10,,,0.13,Wunderground v.1.15,2013-09-20 18:01:00,
2013-09-20 14:02:00,79.8,70.8,29.92,WNW,289,3.0,3.0,74,0.00,,,0.00,Wunderground v.1.15,2013-09-20 18:02:00,
2013-09-20 14:03:00,79.9,70.9,29.92,SSW,202,3.0,5.0,74,0.00,,,0.00,Wunderground v.1.15,2013-09-20 18:03:00,
2013-09-20 14:04:00,80.1,71.1,29.92,South,170,3.0,5.0,74,0.00,,,0.00,Wunderground v.1.15,2013-09-20 18:04:00,
2013-09-20 14:05:00,80.2,71.2,29.92,South,171,3.0,3.0,74,0.00,,,0.00,Wunderground v.1.15,2013-09-20 18:05:00,
2013-09-20 14:06:00,66.8,65.6,29.85,SW,231,0.0,0.0,96,0.12,,,0.14,Wunderground v.1.15,2013-09-20 18:06:00,
2013-09-20 14:07:00,66.8,65.6,29.85,SW,231,0.0,0.0,96,0.12,,,0.14,Wunderground v.1.15,2013-09-20 18:07:00,
2013-09-20 14:08:00,66.8,65.6,29.85,SW,231,0.0,0.0,96,0.12,,,0.14,Wunderground v.1.15,2013-09-20 18:08:00,
2013-09-20 14:09:00,66.8,65.6,29.85,SW,231,0.0,0.0,96,0.12,,,0.15,Wunderground v.1.15,2013-09-20 18:09:00,
2013-09-20 14:10:00,80.7,71.6,29.92,WSW,237,2.0,5.0,74,0.00,,,0.00,Wunderground v.1.15,2013-09-20 18:10:00,
2013-09-20 14:11:00,80.9,71.0,29.92,SW,217,2.0,5.0,72,0.00,,,0.00,Wunderground v.1.15,2013-09-20 18:11:00,
2013-09-20 14:12:00,66.8,65.6,29.85,SW,231,0.0,0.0,96,0.28,,,0.16,Wunderground v.1.15,2013-09-20 18:12:00,
2013-09-20 14:13:00,81.2,71.3,29.92,West,262,2.0,5.0,72,0.00,,,0.00,Wunderground v.1.15,2013-09-20 18:13:00,
2013-09-20 14:14:00,81.3,71.8,29.92,NW,307,2.0,5.0,73,0.00,,,0.00,Wunderground v.1.15,2013-09-20 18:14:00,
2013-09-20 14:16:00,81.5,71.6,29.92,NW,307,2.0,3.0,72,0.00,,,0.00,Wunderground v.1.15,2013-09-20 18:16:00,
2013-09-20 14:17:00,66.8,65.6,29.85,SW,231,0.0,0.0,96,0.21,,,0.17,Wunderground v.1.15,2013-09-20 18:17:00,
2013-09-20 14:18:00,81.5,71.6,29.92,NNW,332,2.0,3.0,72,0.00,,,0.00,Wunderground v.1.15,2013-09-20 18:18:00,
2013-09-20 14:19:00,81.5,71.2,29.91,West,259,2.0,3.0,71,0.00,,,0.00,Wunderground v.1.15,2013-09-20 18:19:00,
2013-09-20 14:20:00,66.8,65.6,29.85,SW,231,0.0,0.0,96,0.18,,,0.18,Wunderground v.1.15,2013-09-20 18:20:00,
2013-09-20 14:21:00,66.8,65.6,29.84,SW,231,0.0,0.0,96,0.15,,,0.18,Wunderground v.1.15,2013-09-20 18:21:00,
2013-09-20 14:22:00,81.3,71.4,29.91,NW,305,2.0,3.0,72,0.00,,,0.00,Wunderground v.1.15,2013-09-20 18:22:00,
2013-09-20 14:24:00,81.2,71.7,29.91,SSW,204,2.0,3.0,73,0.00,,,0.00,Wunderground v.1.15,2013-09-20 18:24:00,
2013-09-20 14:25:00,81.1,72.0,29.91,SSW,205,2.0,2.0,74,0.00,,,0.00,Wunderground v.1.15,2013-09-20 18:25:00,
2013-09-20 14:26:00,66.8,65.6,29.84,SW,231,0.0,0.0,96,0.18,,,0.20,Wunderground v.1.15,2013-09-20 18:26:00,
2013-09-20 14:27:00,66.8,65.6,29.84,SW,231,0.0,0.0,96,0.18,,,0.20,Wunderground v.1.15,2013-09-20 18:27:00,
2013-09-20 14:28:00,80.9,71.4,29.91,South,191,2.0,3.0,73,0.00,,,0.00,Wunderground v.1.15,2013-09-20 18:28:00,
2013-09-20 14:29:00,66.8,65.6,29.84,SW,231,0.0,0.0,96,0.16,,,0.20,Wunderground v.1.15,2013-09-20 18:29:00,
2013-09-20 14:30:00,80.9,71.8,29.91,WSW,237,2.0,3.0,74,0.00,,,0.00,Wunderground v.1.15,2013-09-20 18:30:00,
2013-09-20 14:31:00,66.8,65.6,29.84,SW,231,0.0,0.0,96,0.40,,,0.22,Wunderground v.1.15,2013-09-20 18:31:00,
2013-09-20 14:32:00,80.8,72.1,29.91,South,177,2.0,3.0,75,0.00,,,0.00,Wunderground v.1.15,2013-09-20 18:32:00,
2013-09-20 14:34:00,66.7,65.5,29.84,SW,231,0.0,0.0,96,0.23,,,0.23,Wunderground v.1.15,2013-09-20 18:34:00,
2013-09-20 14:37:00,80.9,71.4,29.90,SSW,199,1.0,2.0,73,0.00,,,0.00,Wunderground v.1.15,2013-09-20 18:37:00,
2013-09-20 14:39:00,81.1,71.6,29.90,NNW,338,1.0,2.0,73,0.00,,,0.00,Wunderground v.1.15,2013-09-20 18:39:00,
2013-09-20 14:40:00,81.2,71.7,29.90,NNW,342,1.0,2.0,73,0.00,,,0.00,Wunderground v.1.15,2013-09-20 18:40:00,
2013-09-20 14:42:00,66.7,65.5,29.83,SW,231,0.0,0.0,96,0.12,,,0.25,Wunderground v.1.15,2013-09-20 18:42:00,
2013-09-20 14:43:00,81.6,72.1,29.90,SW,229,1.0,2.0,73,0.00,,,0.00,Wunderground v.1.15,2013-09-20 18:43:00,
2013-09-20 14:45:00,66.7,65.5,29.83,SW,231,0.0,0.0,96,0.24,,,0.26,Wunderground v.1.15,2013-09-20 18:45:00,
2013-09-20 14:46:00,82.0,71.7,29.90,SSW,195,2.0,3.0,71,0.00,,,0.00,Wunderground v.1.15,2013-09-20 18:46:00,
2013-09-20 14:47:00,82.1,72.2,29.90,SSW,204,2.0,3.0,72,0.00,,,0.00,Wunderground v.1.15,2013-09-20 18:47:00,
2013-09-20 14:48:00,66.6,65.7,29.83,SW,231,0.0,0.0,97,0.15,,,0.27,Wunderground v.1.15,2013-09-20 18:48:00,
2013-09-20 14:49:00,66.6,65.7,29.82,SW,231,0.0,0.0,97,0.15,,,0.27,Wunderground v.1.15,2013-09-20 18:49:00,
2013-09-20 14:51:00,82.3,71.5,29.89,SSW,210,2.0,6.0,70,0.00,,,0.00,Wunderground v.1.15,2013-09-20 18:51:00,
2013-09-20 14:52:00,82.3,71.1,29.89,SSW,194,3.0,6.0,69,0.00,,,0.00,Wunderground v.1.15,2013-09-20 18:52:00,
2013-09-20 14:53:00,82.4,72.0,29.89,South,178,3.0,6.0,71,0.00,,,0.00,Wunderground v.1.15,2013-09-20 18:53:00,
2013-09-20 14:55:00,66.6,65.7,29.82,WNW,290,0.0,0.0,97,0.12,,,0.29,Wunderground v.1.15,2013-09-20 18:55:00,
2013-09-20 14:56:00,82.3,71.5,29.89,WNW,292,3.0,5.0,70,0.00,,,0.00,Wunderground v.1.15,2013-09-20 18:56:00,
2013-09-20 14:57:00,66.5,65.6,29.82,West,275,0.0,1.0,97,0.12,,,0.29,Wunderground v.1.15,2013-09-20 18:57:00,
2013-09-20 14:58:00,82.3,72.0,29.89,North,349,3.0,5.0,71,0.00,,,0.00,Wunderground v.1.15,2013-09-20 18:58:00,
2013-09-20 14:59:00,82.2,71.4,29.89,SSW,201,3.0,5.0,70,0.00,,,0.00,Wunderground v.1.15,2013-09-20 18:59:00,
2013-09-20 15:00:00,66.4,65.5,29.83,West,275,0.0,0.0,97,0.14,,,0.30,Wunderground v.1.15,2013-09-20 19:00:00,
2013-09-20 15:01:00,82.1,71.3,29.89,SSW,211,3.0,5.0,70,0.00,,,0.00,Wunderground v.1.15,2013-09-20 19:01:00,
2013-09-20 15:04:00,82.1,71.8,29.89,SSW,213,2.0,6.0,71,0.00,,,0.00,Wunderground v.1.15,2013-09-20 19:04:00,
2013-09-20 15:05:00,66.3,65.1,29.82,West,273,0.0,0.0,96,0.09,,,0.30,Wunderground v.1.15,2013-09-20 19:05:00,
2013-09-20 15:06:00,82.0,72.1,29.89,ESE,115,2.0,3.0,72,0.00,,,0.00,Wunderground v.1.15,2013-09-20 19:06:00,
2013-09-20 15:07:00,81.9,72.0,29.89,ENE,61,2.0,3.0,72,0.00,,,0.00,Wunderground v.1.15,2013-09-20 19:07:00,
2013-09-20 15:08:00,81.9,72.0,29.89,East,80,2.0,3.0,72,0.00,,,0.00,Wunderground v.1.15,2013-09-20 19:08:00,
2013-09-20 15:11:00,81.5,71.6,29.89,SSW,193,2.0,6.0,72,0.00,,,0.00,Wunderground v.1.15,2013-09-20 19:11:00,
2013-09-20 15:12:00,81.4,71.1,29.88,WSW,248,2.0,7.0,71,0.00,,,0.00,Wunderground v.1.15,2013-09-20 19:12:00,
2013-09-20 15:14:00,81.3,71.0,29.88,SSW,212,2.0,7.0,71,0.00,,,0.00,Wunderground v.1.15,2013-09-20 19:14:00,
2013-09-20 15:15:00,81.2,72.1,29.88,SSE,157,2.0,2.0,74,0.00,,,0.00,Wunderground v.1.15,2013-09-20 19:15:00,
2013-09-20 15:16:00,81.2,71.3,29.88,West,264,2.0,2.0,72,0.00,,,0.00,Wunderground v.1.15,2013-09-20 19:16:00,
2013-09-20 15:19:00,81.1,71.6,29.88,NNW,346,2.0,3.0,73,0.00,,,0.00,Wunderground v.1.15,2013-09-20 19:19:00,
2013-09-20 15:21:00,81.1,71.6,29.88,SW,233,2.0,3.0,73,0.00,,,0.00,Wunderground v.1.15,2013-09-20 19:21:00,
2013-09-20 15:23:00,81.0,71.5,29.88,East,96,2.0,3.0,73,0.00,,,0.00,Wunderground v.1.15,2013-09-20 19:23:00,
2013-09-20 15:25:00,81.0,71.9,29.88,SSW,201,1.0,2.0,74,0.00,,,0.00,Wunderground v.1.15,2013-09-20 19:25:00,
2013-09-20 15:27:00,81.0,71.1,29.88,SSW,194,1.0,2.0,72,0.00,,,0.00,Wunderground v.1.15,2013-09-20 19:27:00,
2013-09-20 15:28:00,81.0,71.5,29.88,SSW,197,1.0,2.0,73,0.00,,,0.00,Wunderground v.1.15,2013-09-20 19:28:00,
2013-09-20 15:30:00,80.9,71.8,29.88,SSE,148,1.0,2.0,74,0.00,,,0.00,Wunderground v.1.15,2013-09-20 19:30:00,
2013-09-20 15:31:00,80.9,71.8,29.88,South,191,1.0,2.0,74,0.00,,,0.00,Wunderground v.1.15,2013-09-20 19:31:00,
2013-09-20 15:32:00,80.8,71.7,29.88,WNW,300,1.0,2.0,74,0.00,,,0.00,Wunderground v.1.15,2013-09-20 19:32:00,
2013-09-20 15:33:00,80.8,72.1,29.88,SE,138,1.0,2.0,75,0.00,,,0.00,Wunderground v.1.15,2013-09-20 19:33:00,
2013-09-20 15:37:00,80.6,71.1,29.88,NW,311,1.0,4.0,73,0.00,,,0.00,Wunderground v.1.15,2013-09-20 19:37:00,
2013-09-20 15:39:00,80.6,71.5,29.88,SSW,199,1.0,4.0,74,0.00,,,0.00,Wunderground v.1.15,2013-09-20 19:39:00,
2013-09-20 15:40:00,80.6,71.1,29.88,WSW,243,1.0,4.0,73,0.00,,,0.00,Wunderground v.1.15,2013-09-20 19:40:00,
2013-09-20 15:41:00,80.6,71.5,29.87,WSW,243,1.0,4.0,74,0.00,,,0.00,Wunderground v.1.15,2013-09-20 19:41:00,
2013-09-20 15:44:00,80.5,71.8,29.87,SW,232,1.0,4.0,75,0.00,,,0.00,Wunderground v.1.15,2013-09-20 19:44:00,
2013-09-20 15:45:00,80.4,71.3,29.88,West,269,1.0,2.0,74,0.00,,,0.00,Wunderground v.1.15,2013-09-20 19:45:00,
2013-09-20 15:46:00,80.2,71.2,29.87,WSW,239,1.0,2.0,74,0.00,,,0.00,Wunderground v.1.15,2013-09-20 19:46:00,
2013-09-20 15:49:00,80.0,72.1,29.87,South,187,1.0,2.0,77,0.00,,,0.00,Wunderground v.1.15,2013-09-20 19:49:00,
2013-09-20 15:50:00,79.8,71.2,29.87,SW,230,1.0,2.0,75,0.00,,,0.00,Wunderground v.1.15,2013-09-20 19:50:00,
2013-09-20 15:53:00,79.4,71.2,29.87,WSW,255,1.0,2.0,76,0.00,,,0.00,Wunderground v.1.15,2013-09-20 19:53:00,
2013-09-20 15:55:00,79.3,70.3,29.88,South,186,1.0,2.0,74,0.00,,,0.00,Wunderground v.1.15,2013-09-20 19:55:00,
2013-09-20 15:56:00,79.1,70.5,29.87,WSW,252,1.0,11.0,75,0.00,,,0.00,Wunderground v.1.15,2013-09-20 19:56:00,
2013-09-20 15:57:00,78.9,70.7,29.87,North,11,2.0,11.0,76,0.00,,,0.00,Wunderground v.1.15,2013-09-20 19:57:00,
2013-09-20 15:59:00,78.5,70.3,29.87,WSW,251,2.0,11.0,76,0.00,,,0.00,Wunderground v.1.15,2013-09-20 19:59:00,
2013-09-20 16:03:00,78.0,70.6,29.87,SSW,200,2.0,11.0,78,0.00,,,0.00,Wunderground v.1.15,2013-09-20 20:03:00,
2013-09-20 16:05:00,77.8,70.4,29.87,SSW,200,2.0,2.0,78,0.00,,,0.00,Wunderground v.1.15,2013-09-20 20:05:00,
2013-09-20 16:08:00,77.7,70.7,29.87,NNE,19,1.0,2.0,79,0.00,,,0.00,Wunderground v.1.15,2013-09-20 20:08:00,
2013-09-20 16:10:00,77.6,70.9,29.87,NNE,27,1.0,2.0,80,0.00,,,0.00,Wunderground v.1.15,2013-09-20 20:10:00,
2013-09-20 16:13:00,77.5,70.8,29.88,WNW,298,0.0,3.0,80,0.00,,,0.00,Wunderground v.1.15,2013-09-20 20:13:00,
2013-09-20 16:14:00,77.5,70.8,29.87,WNW,301,0.0,3.0,80,0.00,,,0.00,Wunderground v.1.15,2013-09-20 20:14:00,
2013-09-20 16:16:00,77.3,70.6,29.88,West,267,1.0,2.0,80,0.00,,,0.00,Wunderground v.1.15,2013-09-20 20:16:00,
2013-09-20 16:17:00,77.3,70.6,29.88,SW,224,1.0,2.0,80,0.00,,,0.00,Wunderground v.1.15,2013-09-20 20:17:00,
2013-09-20 16:20:00,77.1,70.8,29.87,WNW,302,1.0,2.0,81,0.00,,,0.00,Wunderground v.1.15,2013-09-20 20:20:00,
2013-09-20 16:25:00,76.8,71.2,29.87,SW,234,1.0,1.0,83,0.00,,,0.00,Wunderground v.1.15,2013-09-20 20:25:00,
2013-09-20 16:26:00,76.8,71.2,29.88,SW,234,1.0,1.0,83,0.00,,,0.00,Wunderground v.1.15,2013-09-20 20:26:00,
2013-09-20 16:27:00,76.7,71.1,29.87,West,275,0.0,1.0,83,0.00,,,0.00,Wunderground v.1.15,2013-09-20 20:27:00,
2013-09-20 16:28:00,76.7,71.1,29.87,SW,219,1.0,1.0,83,0.00,,,0.00,Wunderground v.1.15,2013-09-20 20:28:00,
2013-09-20 16:29:00,76.6,70.7,29.87,West,279,1.0,1.0,82,0.00,,,0.00,Wunderground v.1.15,2013-09-20 20:29:00,
2013-09-20 16:31:00,76.5,70.6,29.87,North,355,1.0,1.0,82,0.00,,,0.00,Wunderground v.1.15,2013-09-20 20:31:00,
2013-09-20 16:33:00,76.4,70.5,29.87,WNW,302,1.0,1.0,82,0.00,,,0.00,Wunderground v.1.15,2013-09-20 20:33:00,
2013-09-20 16:36:00,76.2,70.3,29.87,SW,223,1.0,1.0,82,0.00,,,0.00,Wunderground v.1.15,2013-09-20 20:36:00,
2013-09-20 16:37:00,76.1,70.2,29.87,NNW,338,1.0,1.0,82,0.00,,,0.00,Wunderground v.1.15,2013-09-20 20:37:00,
2013-09-20 16:38:00,76.1,70.2,29.88,SW,215,1.0,1.0,82,0.00,,,0.00,Wunderground v.1.15,2013-09-20 20:38:00,
2013-09-20 16:41:00,75.9,70.4,29.88,NE,34,1.0,2.0,83,0.00,,,0.00,Wunderground v.1.15,2013-09-20 20:41:00,
2013-09-20 16:43:00,75.8,70.3,29.88,WNW,296,1.0,2.0,83,0.00,,,0.00,Wunderground v.1.15,2013-09-20 20:43:00,
2013-09-20 16:44:00,75.7,70.5,29.88,WSW,250,1.0,2.0,84,0.00,,,0.00,Wunderground v.1.15,2013-09-20 20:44:00,
2013-09-20 16:50:00,75.4,70.2,29.88,WNW,294,1.0,3.0,84,0.00,,,0.00,Wunderground v.1.15,2013-09-20 20:50:00,
2013-09-20 16:51:00,75.4,70.2,29.88,NNW,343,1.0,3.0,84,0.00,,,0.00,Wunderground v.1.15,2013-09-20 20:51:00,
2013-09-20 16:52:00,75.3,70.1,29.88,NE,44,1.0,3.0,84,0.00,,,0.00,Wunderground v.1.15,2013-09-20 20:52:00,
2013-09-20 16:54:00,75.3,70.5,29.87,NE,48,1.0,3.0,85,0.00,,,0.00,Wunderground v.1.15,2013-09-20 20:54:00,
2013-09-20 16:56:00,75.2,70.4,29.87,WSW,250,1.0,1.0,85,0.00,,,0.00,Wunderground v.1.15,2013-09-20 20:56:00,
2013-09-20 16:59:00,75.1,70.3,29.88,ESE,121,1.0,1.0,85,0.00,,,0.00,Wunderground v.1.15,2013-09-20 20:59:00,
2013-09-20 17:01:00,75.1,70.6,29.88,SSW,212,1.0,1.0,86,0.00,,,0.00,Wunderground v.1.15,2013-09-20 21:01:00,
2013-09-20 17:05:00,74.9,70.4,29.88,North,5,1.0,1.0,86,0.00,,,0.00,Wunderground v.1.15,2013-09-20 21:05:00,
2013-09-20 17:08:00,74.9,70.4,29.88,North,5,0.0,1.0,86,0.00,,,0.00,Wunderground v.1.15,2013-09-20 21:08:00,
2013-09-20 17:09:00,74.9,70.4,29.88,WSW,254,0.0,1.0,86,0.00,,,0.00,Wunderground v.1.15,2013-09-20 21:09:00,
2013-09-20 17:10:00,74.8,70.3,29.87,WSW,254,0.0,1.0,86,0.00,,,0.00,Wunderground v.1.15,2013-09-20 21:10:00,
2013-09-20 17:14:00,74.7,70.2,29.87,WSW,254,0.0,1.0,86,0.00,,,0.00,Wunderground v.1.15,2013-09-20 21:14:00,
2013-09-20 17:16:00,74.7,70.6,29.87,WSW,254,0.0,0.0,87,0.00,,,0.00,Wunderground v.1.15,2013-09-20 21:16:00,
2013-09-20 17:17:00,74.7,70.6,29.87,WSW,254,0.0,0.0,87,0.00,,,0.00,Wunderground v.1.15,2013-09-20 21:17:00,
2013-09-20 17:19:00,74.6,70.5,29.87,WSW,254,0.0,0.0,87,0.00,,,0.00,Wunderground v.1.15,2013-09-20 21:19:00,
2013-09-20 17:20:00,74.6,70.5,29.86,WSW,254,0.0,0.0,87,0.00,,,0.00,Wunderground v.1.15,2013-09-20 21:20:00,
2013-09-20 17:23:00,74.5,70.4,29.87,WSW,254,0.0,0.0,87,0.00,,,0.00,Wunderground v.1.15,2013-09-20 21:23:00,
2013-09-20 17:25:00,74.5,70.4,29.86,WSW,254,0.0,0.0,87,0.00,,,0.00,Wunderground v.1.15,2013-09-20 21:25:00,
2013-09-20 17:26:00,74.5,70.7,29.86,WSW,254,0.0,0.0,88,0.00,,,0.00,Wunderground v.1.15,2013-09-20 21:26:00,
2013-09-20 17:28:00,74.5,70.7,29.87,WSW,254,0.0,0.0,88,0.00,,,0.00,Wunderground v.1.15,2013-09-20 21:28:00,
2013-09-20 17:30:00,74.5,70.7,29.87,WSW,254,0.0,0.0,88,0.00,,,0.00,Wunderground v.1.15,2013-09-20 21:30:00,
2013-09-20 17:31:00,74.5,70.7,29.87,WSW,254,0.0,0.0,88,0.00,,,0.00,Wunderground v.1.15,2013-09-20 21:31:00,
2013-09-20 17:32:00,74.4,70.6,29.87,West,278,0.0,1.0,88,0.00,,,0.00,Wunderground v.1.15,2013-09-20 21:32:00,
2013-09-20 17:36:00,74.3,70.5,29.87,West,278,0.0,0.0,88,0.00,,,0.00,Wunderground v.1.15,2013-09-20 21:36:00,
2013-09-20 17:37:00,74.3,70.5,29.87,West,278,0.0,0.0,88,0.00,,,0.00,Wunderground v.1.15,2013-09-20 21:37:00,
2013-09-20 17:38:00,74.3,70.8,29.86,West,278,0.0,0.0,89,0.00,,,0.00,Wunderground v.1.15,2013-09-20 21:38:00,
2013-09-20 17:39:00,74.3,70.8,29.86,West,279,0.0,0.0,89,0.00,,,0.00,Wunderground v.1.15,2013-09-20 21:39:00,
2013-09-20 17:41:00,74.2,70.7,29.87,West,279,0.0,0.0,89,0.00,,,0.00,Wunderground v.1.15,2013-09-20 21:41:00,
2013-09-20 17:42:00,74.2,70.7,29.86,West,279,0.0,0.0,89,0.00,,,0.00,Wunderground v.1.15,2013-09-20 21:42:00,
2013-09-20 17:43:00,74.2,70.7,29.86,West,279,0.0,0.0,89,0.00,,,0.00,Wunderground v.1.15,2013-09-20 21:43:00,
2013-09-20 17:46:00,74.1,70.6,29.87,West,279,0.0,0.0,89,0.00,,,0.00,Wunderground v.1.15,2013-09-20 21:46:00,
2013-09-20 17:48:00,74.0,70.6,29.87,West,279,0.0,0.0,89,0.00,,,0.00,Wunderground v.1.15,2013-09-20 21:48:00,
2013-09-20 17:49:00,74.0,70.6,29.87,West,276,0.0,0.0,89,0.00,,,0.00,Wunderground v.1.15,2013-09-20 21:49:00,
2013-09-20 17:53:00,73.9,70.5,29.87,WNW,301,0.0,0.0,89,0.00,,,0.00,Wunderground v.1.15,2013-09-20 21:53:00,
2013-09-20 17:55:00,73.8,70.4,29.86,North,5,0.0,0.0,89,0.00,,,0.00,Wunderground v.1.15,2013-09-20 21:55:00,
2013-09-20 17:56:00,73.8,70.4,29.86,North,5,0.0,0.0,89,0.00,,,0.00,Wunderground v.1.15,2013-09-20 21:56:00,
2013-09-20 17:57:00,73.8,70.4,29.86,North,5,0.0,0.0,89,0.00,,,0.00,Wunderground v.1.15,2013-09-20 21:57:00,
2013-09-20 18:00:00,73.7,70.3,29.86,North,5,0.0,0.0,89,0.00,,,0.00,Wunderground v.1.15,2013-09-20 22:00:00,
2013-09-20 18:04:00,73.7,70.3,29.86,North,5,0.0,0.0,89,0.00,,,0.00,Wunderground v.1.15,2013-09-20 22:04:00,
2013-09-20 18:06:00,73.6,70.5,29.86,North,5,0.0,1.0,90,0.00,,,0.00,Wunderground v.1.15,2013-09-20 22:06:00,
2013-09-20 18:08:00,73.5,70.4,29.86,North,5,0.0,1.0,90,0.00,,,0.01,Wunderground v.1.15,2013-09-20 22:08:00,
2013-09-20 18:09:00,73.5,70.4,29.86,NE,36,0.0,1.0,90,0.52,,,0.02,Wunderground v.1.15,2013-09-20 22:09:00,
2013-09-20 18:13:00,73.2,70.4,29.86,NE,36,0.0,1.0,91,0.12,,,0.02,Wunderground v.1.15,2013-09-20 22:13:00,
2013-09-20 18:14:00,73.2,70.4,29.86,NE,36,0.0,1.0,91,0.10,,,0.02,Wunderground v.1.15,2013-09-20 22:14:00,
2013-09-20 18:15:00,73.1,70.3,29.86,NE,36,0.0,0.0,91,0.09,,,0.02,Wunderground v.1.15,2013-09-20 22:15:00,
2013-09-20 18:18:00,73.0,70.2,29.86,NE,36,0.0,0.0,91,0.06,,,0.02,Wunderground v.1.15,2013-09-20 22:18:00,
2013-09-20 18:19:00,72.9,70.1,29.86,NE,36,0.0,0.0,91,0.05,,,0.02,Wunderground v.1.15,2013-09-20 22:19:00,
2013-09-20 18:21:00,72.9,70.1,29.86,NE,36,0.0,0.0,91,0.05,,,0.02,Wunderground v.1.15,2013-09-20 22:21:00,
2013-09-20 18:26:00,72.6,70.1,29.85,NNE,18,0.0,0.0,92,0.00,,,0.02,Wunderground v.1.15,2013-09-20 22:26:00,
2013-09-20 18:27:00,72.6,70.1,29.85,NNE,18,0.0,0.0,92,0.00,,,0.02,Wunderground v.1.15,2013-09-20 22:27:00,
2013-09-20 18:28:00,72.6,70.1,29.85,NNE,18,0.0,0.0,92,0.00,,,0.02,Wunderground v.1.15,2013-09-20 22:28:00,
2013-09-20 18:31:00,72.5,70.0,29.85,NNE,18,0.0,0.0,92,0.00,,,0.02,Wunderground v.1.15,2013-09-20 22:31:00,
2013-09-20 18:32:00,72.4,69.9,29.85,NNE,18,0.0,0.0,92,0.00,,,0.02,Wunderground v.1.15,2013-09-20 22:32:00,
2013-09-20 18:34:00,72.4,69.9,29.85,NNE,18,0.0,0.0,92,0.00,,,0.02,Wunderground v.1.15,2013-09-20 22:34:00,
2013-09-20 18:37:00,72.2,69.7,29.85,NNE,18,0.0,0.0,92,0.00,,,0.02,Wunderground v.1.15,2013-09-20 22:37:00,
2013-09-20 18:38:00,72.2,69.7,29.85,NNE,18,0.0,0.0,92,0.00,,,0.02,Wunderground v.1.15,2013-09-20 22:38:00,
2013-09-20 18:40:00,72.1,70.0,29.85,NNE,18,0.0,0.0,93,0.00,,,0.02,Wunderground v.1.15,2013-09-20 22:40:00,
2013-09-20 18:43:00,72.1,70.0,29.85,NNE,18,0.0,0.0,93,0.00,,,0.02,Wunderground v.1.15,2013-09-20 22:43:00,
2013-09-20 18:45:00,72.1,70.0,29.85,NNE,18,0.0,0.0,93,0.00,,,0.02,Wunderground v.1.15,2013-09-20 22:45:00,
2013-09-20 18:47:00,72.0,69.9,29.85,NNE,18,0.0,0.0,93,0.00,,,0.02,Wunderground v.1.15,2013-09-20 22:47:00,
2013-09-20 18:49:00,71.9,69.8,29.85,NNE,18,0.0,0.0,93,0.00,,,0.02,Wunderground v.1.15,2013-09-20 22:49:00,
2013-09-20 18:52:00,71.8,69.7,29.86,NNE,18,0.0,0.0,93,0.00,,,0.03,Wunderground v.1.15,2013-09-20 22:52:00,
2013-09-20 18:53:00,71.8,69.7,29.86,NNE,18,0.0,0.0,93,0.00,,,0.03,Wunderground v.1.15,2013-09-20 22:53:00,
2013-09-20 18:55:00,71.7,69.6,29.86,NNE,18,0.0,0.0,93,0.00,,,0.03,Wunderground v.1.15,2013-09-20 22:55:00,
2013-09-20 18:56:00,71.7,69.9,29.86,NNE,18,0.0,0.0,94,0.00,,,0.03,Wunderground v.1.15,2013-09-20 22:56:00,
2013-09-20 18:58:00,71.7,69.9,29.86,NNE,18,0.0,0.0,94,0.00,,,0.03,Wunderground v.1.15,2013-09-20 22:58:00,
2013-09-20 19:00:00,71.6,69.8,29.86,NNE,18,0.0,0.0,94,0.00,,,0.03,Wunderground v.1.15,2013-09-20 23:00:00,
2013-09-20 19:02:00,71.6,69.8,29.86,NNE,18,0.0,1.0,94,0.00,,,0.03,Wunderground v.1.15,2013-09-20 23:02:00,
2013-09-20 19:03:00,71.6,69.8,29.86,NNE,18,0.0,1.0,94,0.00,,,0.03,Wunderground v.1.15,2013-09-20 23:03:00,
2013-09-20 19:06:00,71.6,69.8,29.86,NNE,18,0.0,0.0,94,0.04,,,0.04,Wunderground v.1.15,2013-09-20 23:06:00,
2013-09-20 19:08:00,71.6,69.8,29.85,NNE,18,0.0,0.0,94,0.04,,,0.04,Wunderground v.1.15,2013-09-20 23:08:00,
2013-09-20 19:11:00,71.6,69.8,29.85,NNE,18,0.0,0.0,94,0.04,,,0.04,Wunderground v.1.15,2013-09-20 23:11:00,
2013-09-20 19:12:00,71.6,69.8,29.85,NNE,18,0.0,0.0,94,0.04,,,0.04,Wunderground v.1.15,2013-09-20 23:12:00,
2013-09-20 19:13:00,71.6,69.8,29.85,NNE,18,0.0,0.0,94,0.04,,,0.04,Wunderground v.1.15,2013-09-20 23:13:00,
2013-09-20 19:14:00,71.6,70.1,29.85,NNE,18,0.0,0.0,95,0.04,,,0.04,Wunderground v.1.15,2013-09-20 23:14:00,
2013-09-20 19:16:00,71.6,70.1,29.86,NNE,18,0.0,0.0,95,0.04,,,0.04,Wunderground v.1.15,2013-09-20 23:16:00,
2013-09-20 19:19:00,71.6,70.1,29.86,NNE,18,0.0,1.0,95,0.04,,,0.04,Wunderground v.1.15,2013-09-20 23:19:00,
2013-09-20 19:21:00,71.5,70.0,29.87,NNE,17,0.0,1.0,95,1.81,,,0.06,Wunderground v.1.15,2013-09-20 23:21:00,
2013-09-20 19:24:00,71.5,70.0,29.86,NNE,17,0.0,1.0,95,0.33,,,0.07,Wunderground v.1.15,2013-09-20 23:24:00,
2013-09-20 19:26:00,71.5,70.0,29.87,NNE,17,0.0,0.0,95,0.28,,,0.08,Wunderground v.1.15,2013-09-20 23:26:00,
2013-09-20 19:28:00,71.4,69.9,29.87,NNE,17,0.0,0.0,95,0.16,,,0.08,Wunderground v.1.15,2013-09-20 23:28:00,
2013-09-20 19:30:00,71.4,69.9,29.87,NNE,17,0.0,0.0,95,0.15,,,0.09,Wunderground v.1.15,2013-09-20 23:30:00,
2013-09-20 19:31:00,71.3,69.8,29.86,NNE,17,0.0,0.0,95,0.15,,,0.09,Wunderground v.1.15,2013-09-20 23:31:00,
2013-09-20 19:32:00,71.3,69.8,29.86,NE,43,0.0,0.0,95,0.21,,,0.10,Wunderground v.1.15,2013-09-20 23:32:00,
2013-09-20 19:34:00,71.3,69.8,29.86,NE,43,0.0,0.0,95,0.21,,,0.10,Wunderground v.1.15,2013-09-20 23:34:00,
2013-09-20 19:35:00,71.3,69.8,29.86,NNE,17,0.0,0.0,95,0.15,,,0.10,Wunderground v.1.15,2013-09-20 23:35:00,
2013-09-20 19:37:00,71.2,69.7,29.87,WSW,252,0.0,2.0,95,0.10,,,0.10,Wunderground v.1.15,2013-09-20 23:37:00,
2013-09-20 19:39:00,71.1,69.6,29.87,WSW,252,0.0,2.0,95,0.08,,,0.11,Wunderground v.1.15,2013-09-20 23:39:00,
2013-09-20 19:40:00,71.1,69.6,29.87,WSW,252,0.0,2.0,95,0.08,,,0.11,Wunderground v.1.15,2013-09-20 23:40:00,
2013-09-20 19:42:00,71.0,69.5,29.87,SW,225,0.0,2.0,95,0.08,,,0.11,Wunderground v.1.15,2013-09-20 23:42:00,
2013-09-20 19:46:00,70.7,69.2,29.87,SW,225,0.0,0.0,95,0.08,,,0.11,Wunderground v.1.15,2013-09-20 23:46:00,
2013-09-20 19:47:00,70.7,69.2,29.87,SW,225,0.0,0.0,95,0.07,,,0.11,Wunderground v.1.15,2013-09-20 23:47:00,
2013-09-20 19:48:00,70.7,69.2,29.87,SW,225,0.0,0.0,95,0.06,,,0.11,Wunderground v.1.15,2013-09-20 23:48:00,
2013-09-20 19:49:00,70.6,69.1,29.87,SW,225,0.0,1.0,95,0.06,,,0.11,Wunderground v.1.15,2013-09-20 23:49:00,
2013-09-20 19:50:00,70.6,69.1,29.86,SW,225,0.0,1.0,95,0.05,,,0.12,Wunderground v.1.15,2013-09-20 23:50:00,
2013-09-20 19:52:00,70.5,69.0,29.86,SW,225,0.0,1.0,95,0.05,,,0.12,Wunderground v.1.15,2013-09-20 23:52:00,
2013-09-20 19:57:00,70.4,68.9,29.86,SSE,159,0.0,0.0,95,0.05,,,0.12,Wunderground v.1.15,2013-09-20 23:57:00,
2013-09-20 19:58:00,70.4,68.9,29.86,SSE,159,0.0,0.0,95,0.05,,,0.12,Wunderground v.1.15,2013-09-20 23:58:00,
2013-09-20 20:00:00,70.3,68.8,29.86,SSE,159,0.0,0.0,95,0.05,,,0.12,Wunderground v.1.15,2013-09-21 00:00:00,
2013-09-20 20:02:00,70.3,68.8,29.86,SSE,159,0.0,0.0,95,0.05,,,0.12,Wunderground v.1.15,2013-09-21 00:02:00,
2013-09-20 20:04:00,70.3,68.8,29.86,SSE,159,0.0,0.0,95,0.04,,,0.12,Wunderground v.1.15,2013-09-21 00:04:00,
2013-09-20 20:05:00,70.3,68.8,29.86,SSE,159,0.0,0.0,95,0.04,,,0.12,Wunderground v.1.15,2013-09-21 00:05:00,
2013-09-20 20:07:00,70.2,68.7,29.86,SSE,159,0.0,0.0,95,0.00,,,0.12,Wunderground v.1.15,2013-09-21 00:07:00,
2013-09-20 20:10:00,70.2,68.7,29.86,SSE,159,0.0,0.0,95,0.00,,,0.12,Wunderground v.1.15,2013-09-21 00:10:00,
2013-09-20 20:11:00,70.2,68.7,29.86,SSE,159,0.0,0.0,95,0.00,,,0.12,Wunderground v.1.15,2013-09-21 00:11:00,
2013-09-20 20:13:00,70.1,68.6,29.86,SSE,159,0.0,0.0,95,0.00,,,0.12,Wunderground v.1.15,2013-09-21 00:13:00,
2013-09-20 20:18:00,70.1,68.6,29.87,WSW,240,0.0,0.0,95,0.00,,,0.12,Wunderground v.1.15,2013-09-21 00:18:00,
2013-09-20 20:22:00,70.1,68.6,29.86,WSW,240,0.0,0.0,95,0.00,,,0.12,Wunderground v.1.15,2013-09-21 00:22:00,
2013-09-20 20:24:00,70.0,68.5,29.87,WSW,240,0.0,0.0,95,0.00,,,0.12,Wunderground v.1.15,2013-09-21 00:24:00,
2013-09-20 20:25:00,70.0,68.5,29.87,WSW,240,0.0,0.0,95,0.00,,,0.13,Wunderground v.1.15,2013-09-21 00:25:00,
2013-09-20 20:26:00,70.0,68.5,29.87,WSW,240,0.0,0.0,95,0.00,,,0.13,Wunderground v.1.15,2013-09-21 00:26:00,
2013-09-20 20:28:00,70.0,68.5,29.87,WSW,240,0.0,0.0,95,0.27,,,0.14,Wunderground v.1.15,2013-09-21 00:28:00,
2013-09-20 20:30:00,70.0,68.5,29.87,WSW,240,0.0,0.0,95,0.15,,,0.14,Wunderground v.1.15,2013-09-21 00:30:00,
2013-09-20 20:32:00,70.0,68.5,29.87,WSW,240,0.0,0.0,95,0.11,,,0.14,Wunderground v.1.15,2013-09-21 00:32:00,
2013-09-20 20:34:00,70.0,68.5,29.87,WSW,240,0.0,0.0,95,0.09,,,0.15,Wunderground v.1.15,2013-09-21 00:34:00,
2013-09-20 20:35:00,70.0,68.5,29.86,WSW,240,0.0,0.0,95,0.09,,,0.15,Wunderground v.1.15,2013-09-21 00:35:00,
2013-09-20 20:37:00,70.0,68.5,29.86,WSW,240,0.0,0.0,95,0.19,,,0.16,Wunderground v.1.15,2013-09-21 00:37:00,
2013-09-20 20:41:00,70.0,68.5,29.87,WSW,240,0.0,0.0,95,0.15,,,0.16,Wunderground v.1.15,2013-09-21 00:41:00,
2013-09-20 20:44:00,70.0,68.8,29.87,WSW,240,0.0,0.0,96,0.12,,,0.17,Wunderground v.1.15,2013-09-21 00:44:00,
2013-09-20 20:45:00,70.0,68.8,29.87,WSW,240,0.0,0.0,96,0.12,,,0.17,Wunderground v.1.15,2013-09-21 00:45:00,
2013-09-20 20:46:00,69.9,68.7,29.86,WSW,240,0.0,0.0,96,0.13,,,0.18,Wunderground v.1.15,2013-09-21 00:46:00,
2013-09-20 20:49:00,69.9,68.7,29.86,WSW,240,0.0,0.0,96,0.13,,,0.18,Wunderground v.1.15,2013-09-21 00:49:00,
2013-09-20 20:50:00,69.9,68.7,29.87,WSW,240,0.0,0.0,96,0.13,,,0.18,Wunderground v.1.15,2013-09-21 00:50:00,
2013-09-20 20:53:00,69.9,68.7,29.86,WSW,240,0.0,0.0,96,0.08,,,0.18,Wunderground v.1.15,2013-09-21 00:53:00,
2013-09-20 20:57:00,69.9,68.7,29.86,WSW,240,0.0,0.0,96,0.06,,,0.18,Wunderground v.1.15,2013-09-21 00:57:00,
2013-09-20 20:58:00,69.9,68.7,29.86,WSW,240,0.0,0.0,96,0.06,,,0.19,Wunderground v.1.15,2013-09-21 00:58:00,
2013-09-20 21:00:00,69.9,68.7,29.86,WSW,240,0.0,0.0,96,0.06,,,0.19,Wunderground v.1.15,2013-09-21 01:00:00,
2013-09-20 21:03:00,69.9,68.7,29.87,WSW,240,0.0,0.0,96,0.06,,,0.19,Wunderground v.1.15,2013-09-21 01:03:00,
2013-09-20 21:06:00,69.8,68.6,29.87,WSW,240,0.0,0.0,96,0.06,,,0.19,Wunderground v.1.15,2013-09-21 01:06:00,
2013-09-20 21:07:00,69.8,68.6,29.87,WSW,240,0.0,0.0,96,0.06,,,0.20,Wunderground v.1.15,2013-09-21 01:07:00,
2013-09-20 21:08:00,69.8,68.6,29.87,WSW,237,0.0,0.0,96,0.06,,,0.20,Wunderground v.1.15,2013-09-21 01:08:00,
2013-09-20 21:12:00,69.8,68.6,29.87,WSW,237,0.0,0.0,96,0.06,,,0.20,Wunderground v.1.15,2013-09-21 01:12:00,
2013-09-20 21:13:00,69.8,68.6,29.87,WSW,237,0.0,0.0,96,0.06,,,0.20,Wunderground v.1.15,2013-09-21 01:13:00,
2013-09-20 21:14:00,69.8,68.6,29.87,WSW,237,0.0,0.0,96,0.06,,,0.20,Wunderground v.1.15,2013-09-21 01:14:00,
2013-09-20 21:15:00,69.7,68.5,29.87,WSW,237,0.0,0.0,96,0.06,,,0.20,Wunderground v.1.15,2013-09-21 01:15:00,
2013-09-20 21:18:00,69.7,68.5,29.87,WSW,237,0.0,0.0,96,0.30,,,0.22,Wunderground v.1.15,2013-09-21 01:18:00,
2013-09-20 21:19:00,69.7,68.5,29.87,WSW,237,0.0,0.0,96,0.30,,,0.22,Wunderground v.1.15,2013-09-21 01:19:00,
2013-09-20 21:20:00,69.6,68.4,29.87,WSW,237,0.0,0.0,96,0.22,,,0.22,Wunderground v.1.15,2013-09-21 01:20:00,
2013-09-20 21:24:00,69.6,68.4,29.86,WSW,237,0.0,0.0,96,0.10,,,0.22,Wunderground v.1.15,2013-09-21 01:24:00,
2013-09-20 21:27:00,69.5,68.3,29.86,WSW,237,0.0,0.0,96,0.06,,,0.22,Wunderground v.1.15,2013-09-21 01:27:00,
2013-09-20 21:29:00,69.5,68.3,29.86,WSW,237,0.0,0.0,96,0.05,,,0.23,Wunderground v.1.15,2013-09-21 01:29:00,
2013-09-20 21:30:00,69.5,68.3,29.86,WSW,237,0.0,0.0,96,0.05,,,0.23,Wunderground v.1.15,2013-09-21 01:30:00,
2013-09-20 21:32:00,69.5,68.3,29.86,WSW,237,0.0,0.0,96,0.05,,,0.23,Wunderground v.1.15,2013-09-21 01:32:00,
2013-09-20 21:35:00,69.5,68.3,29.86,WSW,237,0.0,0.0,96,0.05,,,0.23,Wunderground v.1.15,2013-09-21 01:35:00,
2013-09-20 21:37:00,69.5,68.3,29.86,WSW,237,0.0,0.0,96,0.09,,,0.24,Wunderground v.1.15,2013-09-21 01:37:00,
2013-09-20 21:38:00,69.5,68.3,29.86,WSW,237,0.0,0.0,96,0.09,,,0.24,Wunderground v.1.15,2013-09-21 01:38:00,
2013-09-20 21:39:00,69.4,68.2,29.86,WSW,237,0.0,0.0,96,0.09,,,0.24,Wunderground v.1.15,2013-09-21 01:39:00,
2013-09-20 21:42:00,69.5,68.3,29.85,WSW,237,0.0,0.0,96,0.09,,,0.24,Wunderground v.1.15,2013-09-21 01:42:00,
2013-09-20 21:45:00,69.5,68.3,29.86,WSW,237,0.0,0.0,96,0.06,,,0.24,Wunderground v.1.15,2013-09-21 01:45:00,
2013-09-20 21:47:00,69.5,68.3,29.86,WSW,237,0.0,0.0,96,0.05,,,0.24,Wunderground v.1.15,2013-09-21 01:47:00,
2013-09-20 21:48:00,69.5,68.3,29.86,WSW,237,0.0,0.0,96,0.05,,,0.24,Wunderground v.1.15,2013-09-21 01:48:00,
2013-09-20 21:49:00,69.5,68.3,29.86,WSW,237,0.0,0.0,96,0.04,,,0.24,Wunderground v.1.15,2013-09-21 01:49:00,
2013-09-20 21:50:00,69.5,68.3,29.86,WSW,237,0.0,0.0,96,0.04,,,0.24,Wunderground v.1.15,2013-09-21 01:50:00,
2013-09-20 21:51:00,69.5,68.3,29.86,WSW,237,0.0,0.0,96,0.04,,,0.24,Wunderground v.1.15,2013-09-21 01:51:00,
2013-09-20 21:53:00,69.5,68.3,29.86,WSW,237,0.0,0.0,96,0.04,,,0.25,Wunderground v.1.15,2013-09-21 01:53:00,
2013-09-20 21:54:00,69.5,68.3,29.85,WSW,238,0.0,0.0,96,0.45,,,0.26,Wunderground v.1.15,2013-09-21 01:54:00,
2013-09-20 21:59:00,69.4,68.2,29.85,WSW,238,0.0,0.0,96,0.22,,,0.28,Wunderground v.1.15,2013-09-21 01:59:00,
2013-09-20 22:00:00,69.4,68.2,29.85,WSW,238,0.0,0.0,96,0.22,,,0.28,Wunderground v.1.15,2013-09-21 02:00:00,
2013-09-20 22:03:00,69.4,68.2,29.85,WSW,238,0.0,0.0,96,0.11,,,0.28,Wunderground v.1.15,2013-09-21 02:03:00,
2013-09-20 22:04:00,69.4,68.2,29.85,WSW,238,0.0,0.0,96,0.09,,,0.28,Wunderground v.1.15,2013-09-21 02:04:00,
2013-09-20 22:05:00,58.3,57.2,29.85,West,259,0.0,1.0,96,0.00,,,0.66,Wunderground v.1.15,2013-09-21 02:05:00,
2013-09-20 22:09:00,69.4,68.2,29.85,WSW,238,0.0,0.0,96,0.05,,,0.28,Wunderground v.1.15,2013-09-21 02:09:00,
2013-09-20 22:11:00,58.3,57.2,29.86,WNW,283,0.0,0.0,96,0.00,,,0.66,Wunderground v.1.15,2013-09-21 02:11:00,
2013-09-20 22:12:00,69.4,68.2,29.85,WSW,238,0.0,0.0,96,0.04,,,0.28,Wunderground v.1.15,2013-09-21 02:12:00,
2013-09-20 22:15:00,69.4,68.2,29.85,WSW,238,0.0,0.0,96,0.00,,,0.28,Wunderground v.1.15,2013-09-21 02:15:00,
2013-09-20 22:16:00,69.4,68.2,29.86,WSW,238,0.0,0.0,96,0.00,,,0.28,Wunderground v.1.15,2013-09-21 02:16:00,
2013-09-20 22:17:00,58.2,57.1,29.86,West,276,0.0,1.0,96,0.00,,,0.66,Wunderground v.1.15,2013-09-21 02:17:00,
2013-09-20 22:18:00,69.4,68.2,29.86,WSW,238,0.0,0.0,96,0.00,,,0.28,Wunderground v.1.15,2013-09-21 02:18:00,
2013-09-20 22:21:00,69.4,68.2,29.86,WSW,238,0.0,0.0,96,0.00,,,0.28,Wunderground v.1.15,2013-09-21 02:21:00,
2013-09-20 22:22:00,58.3,57.2,29.86,WNW,288,0.0,1.0,96,0.00,,,0.66,Wunderground v.1.15,2013-09-21 02:22:00,
2013-09-20 22:24:00,58.3,57.2,29.86,North,11,0.0,1.0,96,0.00,,,0.66,Wunderground v.1.15,2013-09-21 02:24:00,
2013-09-20 22:26:00,58.3,57.2,29.86,SW,236,1.0,2.0,96,0.00,,,0.66,Wunderground v.1.15,2013-09-21 02:26:00,
2013-09-20 22:27:00,69.4,68.2,29.85,WSW,238,0.0,0.0,96,0.28,,,0.32,Wunderground v.1.15,2013-09-21 02:27:00,
2013-09-20 22:30:00,69.4,68.2,29.85,WSW,240,0.0,0.0,96,0.18,,,0.33,Wunderground v.1.15,2013-09-21 02:30:00,
2013-09-20 22:31:00,69.3,68.1,29.85,WSW,240,0.0,0.0,96,0.18,,,0.33,Wunderground v.1.15,2013-09-21 02:31:00,
2013-09-20 22:32:00,69.3,68.1,29.85,WSW,240,0.0,0.0,96,0.18,,,0.34,Wunderground v.1.15,2013-09-21 02:32:00,
2013-09-20 22:38:00,69.2,68.0,29.85,WSW,240,0.0,0.0,96,0.73,,,0.37,Wunderground v.1.15,2013-09-21 02:38:00,
2013-09-20 22:39:00,69.2,68.0,29.85,WSW,240,0.0,0.0,96,0.57,,,0.38,Wunderground v.1.15,2013-09-21 02:39:00,
2013-09-20 22:43:00,69.1,67.9,29.85,WSW,240,0.0,0.0,96,0.33,,,0.42,Wunderground v.1.15,2013-09-21 02:43:00,
2013-09-20 22:44:00,58.2,56.8,29.86,NW,321,1.0,1.0,95,0.00,,,0.66,Wunderground v.1.15,2013-09-21 02:44:00,
2013-09-20 22:45:00,69.0,67.8,29.85,WSW,240,0.0,0.0,96,0.16,,,0.42,Wunderground v.1.15,2013-09-21 02:45:00,
2013-09-20 22:46:00,69.0,67.8,29.85,WSW,240,0.0,0.0,96,0.13,,,0.42,Wunderground v.1.15,2013-09-21 02:46:00,
2013-09-20 22:47:00,58.2,56.8,29.86,West,273,1.0,1.0,95,0.00,,,0.66,Wunderground v.1.15,2013-09-21 02:47:00,
2013-09-20 22:48:00,58.2,56.8,29.86,West,273,1.0,1.0,95,0.00,,,0.66,Wunderground v.1.15,2013-09-21 02:48:00,
2013-09-20 22:49:00,69.0,67.8,29.85,WSW,240,0.0,0.0,96,0.12,,,0.43,Wunderground v.1.15,2013-09-21 02:49:00,
2013-09-20 22:52:00,69.0,67.8,29.84,WSW,240,0.0,0.0,96,0.11,,,0.43,Wunderground v.1.15,2013-09-21 02:52:00,
2013-09-20 22:53:00,69.0,67.8,29.85,WSW,240,0.0,0.0,96,0.09,,,0.43,Wunderground v.1.15,2013-09-21 02:53:00,
2013-09-20 22:55:00,58.4,57.3,29.86,WSW,256,0.0,2.0,96,0.00,,,0.66,Wunderground v.1.15,2013-09-21 02:55:00,
2013-09-20 22:56:00,69.0,67.8,29.85,WSW,240,0.0,0.0,96,0.07,,,0.43,Wunderground v.1.15,2013-09-21 02:56:00,
2013-09-20 23:00:00,68.9,67.7,29.85,NE,53,0.0,2.0,96,0.04,,,0.43,Wunderground v.1.15,2013-09-21 03:00:00,
2013-09-20 23:01:00,68.9,67.7,29.85,NNW,337,0.0,2.0,96,0.04,,,0.43,Wunderground v.1.15,2013-09-21 03:01:00,
2013-09-20 23:02:00,68.8,67.6,29.85,NNE,12,0.0,2.0,96,0.04,,,0.43,Wunderground v.1.15,2013-09-21 03:02:00,
2013-09-20 23:09:00,68.4,67.2,29.85,NNE,13,0.0,0.0,96,0.00,,,0.43,Wunderground v.1.15,2013-09-21 03:09:00,
2013-09-20 23:13:00,68.3,67.1,29.85,NNE,13,0.0,1.0,96,0.00,,,0.43,Wunderground v.1.15,2013-09-21 03:13:00,
2013-09-20 23:15:00,68.3,67.1,29.85,NNE,13,0.0,0.0,96,0.00,,,0.44,Wunderground v.1.15,2013-09-21 03:15:00,
2013-09-20 23:17:00,68.2,67.0,29.85,NNE,13,0.0,1.0,96,0.00,,,0.44,Wunderground v.1.15,2013-09-21 03:17:00,
2013-09-20 23:18:00,68.2,67.0,29.85,NNE,13,0.0,1.0,96,0.00,,,0.44,Wunderground v.1.15,2013-09-21 03:18:00,
2013-09-20 23:20:00,68.2,67.0,29.85,NNE,13,0.0,1.0,96,0.00,,,0.44,Wunderground v.1.15,2013-09-21 03:20:00,
2013-09-20 23:22:00,60.3,58.0,29.87,NNE,29,1.0,6.0,92,0.00,,,0.66,Wunderground v.1.15,2013-09-21 03:22:00,
2013-09-20 23:23:00,68.1,66.9,29.85,NNE,13,0.0,1.0,96,0.00,,,0.44,Wunderground v.1.15,2013-09-21 03:23:00,
2013-09-20 23:27:00,68.1,66.9,29.85,NNE,13,0.0,0.0,96,0.05,,,0.45,Wunderground v.1.15,2013-09-21 03:27:00,
2013-09-20 23:28:00,60.5,57.9,29.87,NE,49,2.0,6.0,91,0.00,,,0.66,Wunderground v.1.15,2013-09-21 03:28:00,
2013-09-20 23:29:00,68.1,66.9,29.85,NNE,13,0.0,0.0,96,0.34,,,0.46,Wunderground v.1.15,2013-09-21 03:29:00,
2013-09-20 23:30:00,68.1,66.9,29.85,NNE,13,0.0,0.0,96,0.23,,,0.46,Wunderground v.1.15,2013-09-21 03:30:00,
2013-09-20 23:31:00,60.6,58.3,29.87,ENE,67,2.0,2.0,92,0.00,,,0.66,Wunderground v.1.15,2013-09-21 03:31:00,
2013-09-20 23:32:00,60.6,58.3,29.87,SW,220,1.0,2.0,92,0.00,,,0.66,Wunderground v.1.15,2013-09-21 03:32:00,
2013-09-20 23:33:00,60.7,58.4,29.87,NE,38,1.0,2.0,92,0.00,,,0.66,Wunderground v.1.15,2013-09-21 03:33:00,
2013-09-20 23:34:00,68.0,66.8,29.85,NE,50,0.0,1.0,96,0.10,,,0.47,Wunderground v.1.15,2013-09-21 03:34:00,
2013-09-20 23:35:00,67.9,66.7,29.85,NE,50,0.0,0.0,96,0.10,,,0.47,Wunderground v.1.15,2013-09-21 03:35:00,
2013-09-20 23:39:00,60.5,57.9,29.87,NNW,336,1.0,2.0,91,0.00,,,0.66,Wunderground v.1.15,2013-09-21 03:39:00,
2013-09-20 23:40:00,67.9,66.7,29.85,NE,50,0.0,0.0,96,0.16,,,0.48,Wunderground v.1.15,2013-09-21 03:40:00,
2013-09-20 23:42:00,67.9,66.7,29.85,NE,50,0.0,0.0,96,0.12,,,0.48,Wunderground v.1.15,2013-09-21 03:42:00,
2013-09-20 23:46:00,67.9,66.7,29.85,NE,49,0.0,0.0,96,0.07,,,0.48,Wunderground v.1.15,2013-09-21 03:46:00,
2013-09-20 23:47:00,67.8,66.6,29.85,NE,49,0.0,0.0,96,0.06,,,0.49,Wunderground v.1.15,2013-09-21 03:47:00,
2013-09-20 23:50:00,67.8,66.6,29.85,West,281,0.0,1.0,96,0.06,,,0.49,Wunderground v.1.15,2013-09-21 03:50:00,
2013-09-20 23:51:00,67.7,66.5,29.85,West,281,0.0,1.0,96,0.06,,,0.49,Wunderground v.1.15,2013-09-21 03:51:00,
2013-09-20 23:54:00,67.7,66.5,29.85,WSW,248,0.0,1.0,96,0.06,,,0.49,Wunderground v.1.15,2013-09-21 03:54:00,
2013-09-20 23:59:00,67.6,66.4,29.85,WNW,295,0.0,1.0,96,0.07,,,0.50,Wunderground v.1.15,2013-09-21 03:59:00,